Darstellungsparameter: Aktuell verwendete Einstellungen:
Skalierung der Graphiken ... ?
xyx+y,   Skalierungsfaktor:      Skalierung: Modus: x, Faktor: 1
Darstellungszeitraum ... ?
Vom - - bis: - -   Zeitraum: 26.06.2019 - 30.06.2019
Min/Max/Avg-Anzeige ... ?
Zeige MMA aktuell
Zeige MMA Monat
Zeige MMA alles
Zeige --A aktuell
Zeige --A Monat
Zeige --A alles
Keine MMA-Anzeige
MMA:
Average (ber die Originaldaten)
MMA-Basis: 26.06.2019 - 30.06.2019
Quicknavigation für Darstellung... ?
Tage:      1T, 2T, 3T, 5T -1T -2T -3T -5T +1T +2T +3T +5T
Wochen: 1W, 2W, 3W -1W -2W -3W +1W +2W +3W
Monate: 1M, 3M, 6M -1M -3M -6M +1M +3M +6M
Jahre:    1J, 3J, 5J, 10J -1J -3J -5J -10J +1J +3J +5J +10J
Nutze für die Darstellung ... ?
Originaldaten oder Mittelwerte auf ...
Stundenbasis Tagesbasis Wochenbasis
Monatsbasis Jahresbasis      Datenbasis: Original-Daten
Darstellen als:
Statistik (Auto) Statistik J:M      Darstellung:
Zur Graphik,    zurück zur Übersicht aller Sensoren.
 
Tabellarische Datenbersicht: ?
 
Sensor: Nr:Datum:Temp:Abs-Feuchte:Windchill:Wind:
Aussen-T/F 1 26-06-2019 00:00:00 23.9 C 14.49 g/m*3 23.9 C 0 km/h
2 26-06-2019 00:05:00 23.8 C 14.2 g/m*3 23.8 C 0 km/h
3 26-06-2019 00:10:00 23.7 C 14.54 g/m*3 23.7 C 0 km/h
4 26-06-2019 00:15:00 23.6 C 14.68 g/m*3 23.6 C 0 km/h
5 26-06-2019 00:20:00 23.5 C 14.8 g/m*3 23.5 C 0 km/h
6 26-06-2019 00:25:00 23.4 C 14.72 g/m*3 23.4 C 0 km/h
7 26-06-2019 00:30:00 23.3 C 14.43 g/m*3 23.3 C 0 km/h
8 26-06-2019 00:35:00 23.3 C 14.64 g/m*3 23.3 C 0 km/h
9 26-06-2019 00:40:00 23.2 C 14.55 g/m*3 23.2 C 0 km/h
10 26-06-2019 00:45:00 23.1 C 14.68 g/m*3 23.1 C 0 km/h
11 26-06-2019 00:50:00 23.1 C 14.88 g/m*3 23.1 C 1.6 km/h
12 26-06-2019 00:55:00 23.1 C 14.88 g/m*3 23.1 C 0 km/h
13 26-06-2019 01:00:00 22.9 C 14.71 g/m*3 22.9 C 1.6 km/h
14 26-06-2019 01:05:00 22.9 C 14.92 g/m*3 22.9 C 3.2 km/h
15 26-06-2019 01:10:00 22.9 C 14.92 g/m*3 22.9 C 0 km/h
16 26-06-2019 01:15:00 22.8 C 14.63 g/m*3 22.8 C 0 km/h
17 26-06-2019 01:20:00 22.7 C 14.55 g/m*3 22.7 C 0 km/h
18 26-06-2019 01:25:00 22.5 C 14.58 g/m*3 22.5 C 0 km/h
19 26-06-2019 01:30:00 22.3 C 14.61 g/m*3 22.3 C 0 km/h
20 26-06-2019 01:35:00 22.1 C 14.64 g/m*3 22.1 C 0 km/h
21 26-06-2019 01:40:00 22 C 14.75 g/m*3 22 C 0 km/h
22 26-06-2019 01:45:00 21.9 C 14.67 g/m*3 21.9 C 1.6 km/h
23 26-06-2019 01:50:00 21.8 C 14.77 g/m*3 21.8 C 6.4 km/h
24 26-06-2019 01:55:00 21.8 C 14.77 g/m*3 21.8 C 0 km/h
25 26-06-2019 02:00:00 21.7 C 14.69 g/m*3 21.7 C 0 km/h
Sensor: Nr:Datum:Temp:Abs-Feuchte:Windchill:Wind:
Aussen-T/F 26 26-06-2019 02:05:00 21.6 C 14.6 g/m*3 21.6 C 0 km/h
27 26-06-2019 02:10:00 21.5 C 14.71 g/m*3 21.5 C 0 km/h
28 26-06-2019 02:15:00 21.3 C 14.54 g/m*3 21.3 C 0 km/h
29 26-06-2019 02:20:00 21.3 C 14.73 g/m*3 21.3 C 0 km/h
30 26-06-2019 02:25:00 21.2 C 14.64 g/m*3 21.2 C 0 km/h
31 26-06-2019 02:30:00 21.2 C 14.64 g/m*3 21.2 C 0 km/h
32 26-06-2019 02:35:00 21.1 C 14.56 g/m*3 21.1 C 0 km/h
33 26-06-2019 02:40:00 21 C 14.65 g/m*3 21 C 0 km/h
34 26-06-2019 02:45:00 20.9 C 14.57 g/m*3 20.9 C 0 km/h
35 26-06-2019 02:50:00 20.9 C 14.75 g/m*3 20.9 C 1.6 km/h
36 26-06-2019 02:55:00 20.8 C 14.67 g/m*3 20.8 C 3.2 km/h
37 26-06-2019 03:00:00 20.8 C 14.67 g/m*3 20.8 C 1.6 km/h
38 26-06-2019 03:05:00 20.7 C 14.58 g/m*3 20.7 C 0 km/h
39 26-06-2019 03:10:00 20.7 C 14.58 g/m*3 20.7 C 1.6 km/h
40 26-06-2019 03:15:00 20.7 C 14.76 g/m*3 20.7 C 0 km/h
41 26-06-2019 03:20:00 20.7 C 14.76 g/m*3 20.7 C 0 km/h
42 26-06-2019 03:25:00 20.7 C 14.76 g/m*3 20.7 C 0 km/h
43 26-06-2019 03:30:00 20.7 C 14.76 g/m*3 20.7 C 0 km/h
44 26-06-2019 03:35:00 20.6 C 14.68 g/m*3 20.6 C 0 km/h
45 26-06-2019 03:40:00 20.4 C 14.51 g/m*3 20.4 C 1.6 km/h
46 26-06-2019 03:45:00 20.3 C 14.42 g/m*3 20.3 C 0 km/h
47 26-06-2019 03:50:00 20.3 C 14.6 g/m*3 20.3 C 0 km/h
48 26-06-2019 03:55:00 20.3 C 14.6 g/m*3 20.3 C 0 km/h
49 26-06-2019 04:00:00 20.3 C 14.6 g/m*3 20.3 C 0 km/h
50 26-06-2019 04:05:00 20.2 C 14.51 g/m*3 20.2 C 0 km/h
Sensor: Nr:Datum:Temp:Abs-Feuchte:Windchill:Wind:
Aussen-T/F 51 26-06-2019 04:10:00 20.1 C 14.43 g/m*3 20.1 C 0 km/h
52 26-06-2019 04:15:00 19.9 C 14.26 g/m*3 19.9 C 0 km/h
53 26-06-2019 04:20:00 19.9 C 14.43 g/m*3 19.9 C 0 km/h
54 26-06-2019 04:25:00 19.8 C 14.52 g/m*3 19.8 C 0 km/h
55 26-06-2019 04:30:00 19.8 C 14.52 g/m*3 19.8 C 0 km/h
56 26-06-2019 04:35:00 19.7 C 14.43 g/m*3 19.7 C 0 km/h
57 26-06-2019 04:40:00 19.6 C 14.35 g/m*3 19.6 C 0 km/h
58 26-06-2019 04:45:00 19.6 C 14.35 g/m*3 19.6 C 0 km/h
59 26-06-2019 04:50:00 19.5 C 14.43 g/m*3 19.5 C 0 km/h
60 26-06-2019 04:55:00 19.5 C 14.43 g/m*3 19.5 C 0 km/h
61 26-06-2019 05:00:00 19.4 C 14.35 g/m*3 19.4 C 0 km/h
62 26-06-2019 05:05:00 19.4 C 14.35 g/m*3 19.4 C 0 km/h
63 26-06-2019 05:10:00 19.4 C 14.52 g/m*3 19.4 C 4.8 km/h
64 26-06-2019 05:15:00 19.5 C 14.43 g/m*3 19.5 C 0 km/h
65 26-06-2019 05:20:00 19.6 C 14.52 g/m*3 19.6 C 0 km/h
66 26-06-2019 05:25:00 19.6 C 14.52 g/m*3 19.6 C 0 km/h
67 26-06-2019 05:30:00 19.5 C 14.43 g/m*3 19.5 C 1.6 km/h
68 26-06-2019 05:35:00 19.5 C 14.6 g/m*3 19.5 C 0 km/h
69 26-06-2019 05:40:00 19.5 C 14.6 g/m*3 19.5 C 0 km/h
70 26-06-2019 05:45:00 19.5 C 14.6 g/m*3 19.5 C 0 km/h
71 26-06-2019 05:50:00 19.4 C 14.52 g/m*3 19.4 C 0 km/h
72 26-06-2019 05:55:00 19.4 C 14.52 g/m*3 19.4 C 1.6 km/h
73 26-06-2019 06:00:00 19.5 C 14.6 g/m*3 19.5 C 0 km/h
74 26-06-2019 06:05:00 19.4 C 14.52 g/m*3 19.4 C 0 km/h
75 26-06-2019 06:10:00 19.4 C 14.68 g/m*3 19.4 C 0 km/h
Sensor: Nr:Datum:Temp:Abs-Feuchte:Windchill:Wind:
Aussen-T/F 76 26-06-2019 06:15:00 19.4 C 14.68 g/m*3 19.4 C 0 km/h
77 26-06-2019 06:20:00 19.5 C 14.77 g/m*3 19.5 C 0 km/h
78 26-06-2019 06:25:00 19.5 C 14.77 g/m*3 19.5 C 1.6 km/h
79 26-06-2019 06:30:00 19.6 C 14.86 g/m*3 19.6 C 0 km/h
80 26-06-2019 06:35:00 19.6 C 14.86 g/m*3 19.6 C 0 km/h
81 26-06-2019 06:40:00 19.7 C 14.94 g/m*3 19.7 C 0 km/h
82 26-06-2019 06:45:00 19.7 C 14.94 g/m*3 19.7 C 0 km/h
83 26-06-2019 06:50:00 19.8 C 15.03 g/m*3 19.8 C 0 km/h
84 26-06-2019 06:55:00 19.8 C 15.03 g/m*3 19.8 C 1.6 km/h
85 26-06-2019 07:00:00 19.8 C 15.03 g/m*3 19.8 C 1.6 km/h
86 26-06-2019 07:05:00 19.9 C 15.12 g/m*3 19.9 C 0 km/h
87 26-06-2019 07:10:00 20 C 15.21 g/m*3 20 C 0 km/h
88 26-06-2019 07:15:00 20.1 C 15.3 g/m*3 20.1 C 0 km/h
89 26-06-2019 07:20:00 20.2 C 15.39 g/m*3 20.2 C 1.6 km/h
90 26-06-2019 07:25:00 20.2 C 15.39 g/m*3 20.2 C 0 km/h
91 26-06-2019 08:40:00 22.3 C 17.38 g/m*3 22.3 C 0 km/h
92 26-06-2019 08:45:00 22.6 C 17.48 g/m*3 22.6 C 0 km/h
93 26-06-2019 08:50:00 22.8 C 17.88 g/m*3 22.8 C 0 km/h
94 26-06-2019 08:55:00 23.1 C 17.98 g/m*3 23.1 C 0 km/h
95 26-06-2019 09:00:00 23.2 C 18.29 g/m*3 23.2 C 0 km/h
96 26-06-2019 09:05:00 23.4 C 18.5 g/m*3 23.4 C 0 km/h
97 26-06-2019 09:10:00 23.6 C 18.29 g/m*3 23.6 C 1.6 km/h
98 26-06-2019 09:15:00 23.9 C 18.6 g/m*3 23.9 C 4.8 km/h
99 26-06-2019 09:20:00 24.2 C 18.7 g/m*3 24.2 C 1.6 km/h
100 26-06-2019 09:25:00 24.4 C 18.69 g/m*3 24.4 C 0 km/h
Sensor: Nr:Datum:Temp:Abs-Feuchte:Windchill:Wind:
Aussen-T/F 101 26-06-2019 09:30:00 24.8 C 18.89 g/m*3 24.8 C 6.4 km/h
102 26-06-2019 09:35:00 25.1 C 18.75 g/m*3 25.1 C 9.7 km/h
103 26-06-2019 09:40:00 25.4 C 18.83 g/m*3 25.4 C 9.7 km/h
104 26-06-2019 09:45:00 25.7 C 18.91 g/m*3 25.7 C 4.8 km/h
105 26-06-2019 09:50:00 25.9 C 18.88 g/m*3 25.9 C 6.4 km/h
106 26-06-2019 09:55:00 26.1 C 19.1 g/m*3 26.1 C 4.8 km/h
107 26-06-2019 10:00:00 26.2 C 18.96 g/m*3 26.2 C 3.2 km/h
108 26-06-2019 10:05:00 26.3 C 18.81 g/m*3 26.3 C 8.1 km/h
109 26-06-2019 10:10:00 26.5 C 19.02 g/m*3 26.5 C 4.8 km/h
110 26-06-2019 10:15:00 26.7 C 18.98 g/m*3 26.7 C 3.2 km/h
111 26-06-2019 10:20:00 26.8 C 19.34 g/m*3 26.8 C 3.2 km/h
112 26-06-2019 10:25:00 27.1 C 19.15 g/m*3 27.1 C 4.8 km/h
113 26-06-2019 10:30:00 27.3 C 19.62 g/m*3 27.3 C 3.2 km/h
114 26-06-2019 10:35:00 27.6 C 19.69 g/m*3 27.6 C 1.6 km/h
115 26-06-2019 10:40:00 27.9 C 19.47 g/m*3 27.9 C 3.2 km/h
116 26-06-2019 10:45:00 28.1 C 19.69 g/m*3 28.1 C 4.8 km/h
117 26-06-2019 10:50:00 28.2 C 19.52 g/m*3 28.2 C 4.8 km/h
118 26-06-2019 10:55:00 28.3 C 19.63 g/m*3 28.3 C 6.4 km/h
119 26-06-2019 11:00:00 28.4 C 19.46 g/m*3 28.4 C 8.1 km/h
120 26-06-2019 11:05:00 28.5 C 19.56 g/m*3 28.5 C 4.8 km/h
121 26-06-2019 11:10:00 28.6 C 19.39 g/m*3 28.6 C 6.4 km/h
122 26-06-2019 11:15:00 28.7 C 19.5 g/m*3 28.7 C 6.4 km/h
123 26-06-2019 11:20:00 28.8 C 19.32 g/m*3 28.8 C 6.4 km/h
124 26-06-2019 11:25:00 28.9 C 19.71 g/m*3 28.9 C 3.2 km/h
125 26-06-2019 11:30:00 28.9 C 19.43 g/m*3 28.9 C 9.7 km/h
Sensor: Nr:Datum:Temp:Abs-Feuchte:Windchill:Wind:
Aussen-T/F 126 26-06-2019 11:35:00 29.1 C 19.35 g/m*3 29.1 C 6.4 km/h
127 26-06-2019 11:40:00 29.2 C 19.46 g/m*3 29.2 C 11.3 km/h
128 26-06-2019 11:45:00 29.3 C 19.56 g/m*3 29.3 C 11.3 km/h
129 26-06-2019 11:50:00 29.4 C 19.67 g/m*3 29.4 C 8.1 km/h
130 26-06-2019 11:55:00 29.6 C 19.88 g/m*3 29.6 C 4.8 km/h
131 26-06-2019 12:00:00 29.7 C 19.69 g/m*3 29.7 C 9.7 km/h
132 26-06-2019 12:05:00 29.7 C 19.39 g/m*3 29.7 C 4.8 km/h
133 26-06-2019 12:10:00 29.8 C 19.8 g/m*3 29.8 C 8.1 km/h
134 26-06-2019 12:15:00 30 C 19.71 g/m*3 30 C 4.8 km/h
135 26-06-2019 12:20:00 30.1 C 19.51 g/m*3 30.1 C 8.1 km/h
136 26-06-2019 12:25:00 30.2 C 19.62 g/m*3 30.2 C 6.4 km/h
137 26-06-2019 12:30:00 30.3 C 19.11 g/m*3 30.3 C 8.1 km/h
138 26-06-2019 12:35:00 30.4 C 19.52 g/m*3 30.4 C 4.8 km/h
139 26-06-2019 12:40:00 30.4 C 18.9 g/m*3 30.4 C 4.8 km/h
140 26-06-2019 12:45:00 30.6 C 19.11 g/m*3 30.6 C 4.8 km/h
141 26-06-2019 12:50:00 30.8 C 18.68 g/m*3 30.8 C 6.4 km/h
142 26-06-2019 12:55:00 30.9 C 18.46 g/m*3 30.9 C 8.1 km/h
143 26-06-2019 13:00:00 31.1 C 18.34 g/m*3 31.1 C 8.1 km/h
144 26-06-2019 13:05:00 31.2 C 18.44 g/m*3 31.2 C 8.1 km/h
145 26-06-2019 13:10:00 31.3 C 18.21 g/m*3 31.3 C 6.4 km/h
146 26-06-2019 13:15:00 31.3 C 17.89 g/m*3 31.3 C 1.6 km/h
147 26-06-2019 13:20:00 31.4 C 17.66 g/m*3 31.4 C 8.1 km/h
148 26-06-2019 13:25:00 31.6 C 17.18 g/m*3 31.6 C 9.7 km/h
149 26-06-2019 13:30:00 31.7 C 15.95 g/m*3 31.7 C 8.1 km/h
150 26-06-2019 13:35:00 31.8 C 17.37 g/m*3 31.8 C 8.1 km/h
Sensor: Nr:Datum:Temp:Abs-Feuchte:Windchill:Wind:
Aussen-T/F 151 26-06-2019 13:40:00 31.9 C 17.8 g/m*3 31.9 C 9.7 km/h
152 26-06-2019 13:45:00 31.9 C 17.13 g/m*3 31.9 C 11.3 km/h
153 26-06-2019 13:50:00 32.2 C 17.4 g/m*3 32.2 C 8.1 km/h
154 26-06-2019 13:55:00 32.2 C 17.4 g/m*3 32.2 C 9.7 km/h
155 26-06-2019 14:00:00 32.3 C 17.49 g/m*3 32.3 C 8.1 km/h
156 26-06-2019 14:05:00 32.3 C 17.49 g/m*3 32.3 C 8.1 km/h
157 26-06-2019 14:10:00 32.3 C 17.49 g/m*3 32.3 C 9.7 km/h
158 26-06-2019 14:15:00 32.3 C 17.84 g/m*3 32.3 C 4.8 km/h
159 26-06-2019 14:20:00 32.4 C 17.59 g/m*3 32.4 C 9.7 km/h
160 26-06-2019 14:25:00 32.6 C 17.77 g/m*3 32.6 C 11.3 km/h
161 26-06-2019 14:30:00 32.7 C 17.17 g/m*3 32.7 C 9.7 km/h
162 26-06-2019 14:35:00 32.7 C 17.52 g/m*3 32.7 C 11.3 km/h
163 26-06-2019 14:40:00 32.9 C 17.7 g/m*3 32.9 C 12.9 km/h
164 26-06-2019 14:45:00 32.9 C 17.35 g/m*3 32.9 C 3.2 km/h
165 26-06-2019 14:50:00 33.1 C 17.89 g/m*3 33.1 C 11.3 km/h
166 26-06-2019 14:55:00 33.2 C 18.35 g/m*3 33.2 C 9.7 km/h
167 26-06-2019 15:00:00 33.4 C 18.91 g/m*3 33.4 C 11.3 km/h
168 26-06-2019 15:05:00 33.5 C 18.27 g/m*3 33.5 C 11.3 km/h
169 26-06-2019 15:10:00 33.4 C 17.81 g/m*3 33.4 C 9.7 km/h
170 26-06-2019 15:15:00 33.4 C 18.18 g/m*3 33.4 C 6.4 km/h
171 26-06-2019 15:20:00 33.6 C 18 g/m*3 33.6 C 11.3 km/h
172 26-06-2019 15:25:00 33.7 C 18.84 g/m*3 33.7 C 9.7 km/h
173 26-06-2019 15:30:00 33.9 C 19.04 g/m*3 33.9 C 9.7 km/h
174 26-06-2019 15:35:00 34.1 C 19.24 g/m*3 34.1 C 8.1 km/h
175 26-06-2019 15:40:00 34.3 C 18.68 g/m*3 34.3 C 11.3 km/h
Sensor: Nr:Datum:Temp:Abs-Feuchte:Windchill:Wind:
Aussen-T/F 176 26-06-2019 15:45:00 34.3 C 18.3 g/m*3 34.3 C 11.3 km/h
177 26-06-2019 15:50:00 34.5 C 18.49 g/m*3 34.5 C 8.1 km/h
178 26-06-2019 15:55:00 34.7 C 18.29 g/m*3 34.7 C 9.7 km/h
179 26-06-2019 16:00:00 34.7 C 19.07 g/m*3 34.7 C 9.7 km/h
180 26-06-2019 16:05:00 34.8 C 18.39 g/m*3 34.8 C 9.7 km/h
181 26-06-2019 16:10:00 34.8 C 17.61 g/m*3 34.8 C 14.5 km/h
182 26-06-2019 16:15:00 34.8 C 18.39 g/m*3 34.8 C 9.7 km/h
183 26-06-2019 16:20:00 34.9 C 18.09 g/m*3 34.9 C 11.3 km/h
184 26-06-2019 16:25:00 34.9 C 17.3 g/m*3 34.9 C 12.9 km/h
185 26-06-2019 16:30:00 34.8 C 17.61 g/m*3 34.8 C 9.7 km/h
186 26-06-2019 16:35:00 34.7 C 17.51 g/m*3 34.7 C 8.1 km/h
187 26-06-2019 16:40:00 34.6 C 17.81 g/m*3 34.6 C 14.5 km/h
188 26-06-2019 16:45:00 34.7 C 17.9 g/m*3 34.7 C 12.9 km/h
189 26-06-2019 16:50:00 34.7 C 17.51 g/m*3 34.7 C 11.3 km/h
190 26-06-2019 16:55:00 34.8 C 17.61 g/m*3 34.8 C 11.3 km/h
191 26-06-2019 17:00:00 34.9 C 17.3 g/m*3 34.9 C 9.7 km/h
192 26-06-2019 17:05:00 34.9 C 17.7 g/m*3 34.9 C 9.7 km/h
193 26-06-2019 17:10:00 35 C 17.79 g/m*3 35 C 11.3 km/h
194 26-06-2019 17:15:00 34.8 C 17.61 g/m*3 34.8 C 9.7 km/h
195 26-06-2019 17:20:00 34.8 C 17.21 g/m*3 34.8 C 9.7 km/h
196 26-06-2019 17:25:00 34.7 C 17.12 g/m*3 34.7 C 11.3 km/h
197 26-06-2019 17:30:00 34.7 C 17.12 g/m*3 34.7 C 11.3 km/h
198 26-06-2019 17:35:00 34.7 C 17.12 g/m*3 34.7 C 8.1 km/h
199 26-06-2019 17:40:00 34.8 C 16.82 g/m*3 34.8 C 14.5 km/h
200 26-06-2019 17:45:00 34.6 C 17.04 g/m*3 34.6 C 12.9 km/h
Sensor: Nr:Datum:Temp:Abs-Feuchte:Windchill:Wind:
Aussen-T/F 201 26-06-2019 17:50:00 34.6 C 17.04 g/m*3 34.6 C 12.9 km/h
202 26-06-2019 17:55:00 34.7 C 16.35 g/m*3 34.7 C 12.9 km/h
203 26-06-2019 18:00:00 34.6 C 16.26 g/m*3 34.6 C 9.7 km/h
204 26-06-2019 18:05:00 34.6 C 16.26 g/m*3 34.6 C 12.9 km/h
205 26-06-2019 18:10:00 34.7 C 15.96 g/m*3 34.7 C 9.7 km/h
206 26-06-2019 18:15:00 34.7 C 15.96 g/m*3 34.7 C 16.1 km/h
207 26-06-2019 18:20:00 34.6 C 16.26 g/m*3 34.6 C 11.3 km/h
208 26-06-2019 18:25:00 34.4 C 15.71 g/m*3 34.4 C 14.5 km/h
209 26-06-2019 18:30:00 34.3 C 16.01 g/m*3 34.3 C 11.3 km/h
210 26-06-2019 18:35:00 34.2 C 15.55 g/m*3 34.2 C 9.7 km/h
211 26-06-2019 18:40:00 34.1 C 15.84 g/m*3 34.1 C 9.7 km/h
212 26-06-2019 18:45:00 34.2 C 15.92 g/m*3 34.2 C 11.3 km/h
213 26-06-2019 18:50:00 34 C 16.13 g/m*3 34 C 16.1 km/h
214 26-06-2019 18:55:00 34 C 16.13 g/m*3 34 C 11.3 km/h
215 26-06-2019 19:00:00 33.9 C 16.42 g/m*3 33.9 C 11.3 km/h
216 26-06-2019 19:05:00 34.1 C 16.22 g/m*3 34.1 C 9.7 km/h
217 26-06-2019 19:10:00 34 C 16.13 g/m*3 34 C 14.5 km/h
218 26-06-2019 19:15:00 33.9 C 16.05 g/m*3 33.9 C 9.7 km/h
219 26-06-2019 19:20:00 33.9 C 16.05 g/m*3 33.9 C 11.3 km/h
220 26-06-2019 19:25:00 33.6 C 15.8 g/m*3 33.6 C 11.3 km/h
221 26-06-2019 19:30:00 33.4 C 16 g/m*3 33.4 C 9.7 km/h
222 26-06-2019 19:35:00 33.2 C 15.83 g/m*3 33.2 C 8.1 km/h
223 26-06-2019 19:40:00 32.9 C 15.58 g/m*3 32.9 C 11.3 km/h
224 26-06-2019 19:45:00 32.7 C 15.42 g/m*3 32.7 C 12.9 km/h
225 26-06-2019 19:50:00 32.5 C 15.25 g/m*3 32.5 C 9.7 km/h
Sensor: Nr:Datum:Temp:Abs-Feuchte:Windchill:Wind:
Aussen-T/F 226 26-06-2019 19:55:00 32.3 C 15.09 g/m*3 32.3 C 9.7 km/h
227 26-06-2019 20:00:00 32.2 C 15.35 g/m*3 32.2 C 8.1 km/h
228 26-06-2019 20:05:00 32.1 C 15.61 g/m*3 32.1 C 11.3 km/h
229 26-06-2019 20:10:00 31.9 C 15.45 g/m*3 31.9 C 9.7 km/h
230 26-06-2019 20:15:00 31.8 C 15.7 g/m*3 31.8 C 8.1 km/h
231 26-06-2019 20:20:00 31.6 C 16.19 g/m*3 31.6 C 12.9 km/h
232 26-06-2019 20:25:00 30.9 C 16.55 g/m*3 30.9 C 9.7 km/h
233 26-06-2019 20:30:00 30.3 C 16.03 g/m*3 30.3 C 8.1 km/h
234 26-06-2019 20:35:00 30.1 C 15.85 g/m*3 30.1 C 9.7 km/h
235 26-06-2019 20:40:00 30.1 C 16.46 g/m*3 30.1 C 6.4 km/h
236 26-06-2019 20:45:00 30.1 C 16.16 g/m*3 30.1 C 4.8 km/h
237 26-06-2019 20:50:00 30.1 C 16.46 g/m*3 30.1 C 3.2 km/h
238 26-06-2019 20:55:00 30.1 C 16.16 g/m*3 30.1 C 8.1 km/h
239 26-06-2019 21:00:00 29.9 C 15.99 g/m*3 29.9 C 1.6 km/h
240 26-06-2019 21:05:00 29.8 C 15.9 g/m*3 29.8 C 3.2 km/h
241 26-06-2019 21:10:00 29.7 C 16.11 g/m*3 29.7 C 1.6 km/h
242 26-06-2019 21:15:00 29.4 C 15.85 g/m*3 29.4 C 6.4 km/h
243 26-06-2019 21:20:00 29.2 C 16.26 g/m*3 29.2 C 4.8 km/h
244 26-06-2019 21:25:00 28.9 C 16.28 g/m*3 28.9 C 3.2 km/h
245 26-06-2019 21:30:00 28.7 C 15.82 g/m*3 28.7 C 4.8 km/h
246 26-06-2019 21:35:00 28.4 C 15.84 g/m*3 28.4 C 3.2 km/h
247 26-06-2019 21:40:00 28.3 C 16.03 g/m*3 28.3 C 1.6 km/h
248 26-06-2019 21:45:00 28 C 16.32 g/m*3 28 C 1.6 km/h
249 26-06-2019 21:50:00 27.7 C 15.78 g/m*3 27.7 C 1.6 km/h
250 26-06-2019 21:55:00 27.6 C 16.23 g/m*3 27.6 C 1.6 km/h
Sensor: Nr:Datum:Temp:Abs-Feuchte:Windchill:Wind:
Aussen-T/F 251 26-06-2019 22:00:00 27.4 C 16.05 g/m*3 27.4 C 1.6 km/h
252 26-06-2019 22:05:00 27.2 C 16.13 g/m*3 27.2 C 3.2 km/h
253 26-06-2019 22:10:00 26.9 C 16.12 g/m*3 26.9 C 1.6 km/h
254 26-06-2019 22:15:00 26.7 C 16.2 g/m*3 26.7 C 1.6 km/h
255 26-06-2019 22:20:00 26.5 C 16.27 g/m*3 26.5 C 3.2 km/h
256 26-06-2019 22:25:00 26.3 C 16.09 g/m*3 26.3 C 1.6 km/h
257 26-06-2019 22:30:00 26.2 C 16.25 g/m*3 26.2 C 8.1 km/h
258 26-06-2019 22:35:00 26.1 C 16.4 g/m*3 26.1 C 1.6 km/h
259 26-06-2019 22:40:00 25.9 C 16.22 g/m*3 25.9 C 0 km/h
260 26-06-2019 22:45:00 25.8 C 16.13 g/m*3 25.8 C 8.1 km/h
261 26-06-2019 22:50:00 25.9 C 16.46 g/m*3 25.9 C 1.6 km/h
262 26-06-2019 22:55:00 25.9 C 16.46 g/m*3 25.9 C 0 km/h
263 26-06-2019 23:00:00 25.8 C 16.37 g/m*3 25.8 C 1.6 km/h
264 26-06-2019 23:05:00 25.7 C 16.52 g/m*3 25.7 C 6.4 km/h
265 26-06-2019 23:10:00 25.8 C 16.61 g/m*3 25.8 C 11.3 km/h
266 26-06-2019 23:15:00 26 C 16.8 g/m*3 26 C 8.1 km/h
267 26-06-2019 23:20:00 26.2 C 16.74 g/m*3 26.2 C 3.2 km/h
268 26-06-2019 23:25:00 26.3 C 17.08 g/m*3 26.3 C 3.2 km/h
269 26-06-2019 23:30:00 26.2 C 16.99 g/m*3 26.2 C 3.2 km/h
270 26-06-2019 23:35:00 26.1 C 17.14 g/m*3 26.1 C 1.6 km/h
271 26-06-2019 23:40:00 26 C 17.04 g/m*3 26 C 12.9 km/h
272 26-06-2019 23:45:00 26.1 C 17.14 g/m*3 26.1 C 8.1 km/h
273 26-06-2019 23:50:00 26.1 C 17.14 g/m*3 26.1 C 6.4 km/h
274 26-06-2019 23:55:00 26.1 C 17.38 g/m*3 26.1 C 1.6 km/h
275 27-06-2019 00:00:00 25.8 C 17.09 g/m*3 25.8 C 6.4 km/h
Sensor: Nr:Datum:Temp:Abs-Feuchte:Windchill:Wind:
Aussen-T/F 276 27-06-2019 00:05:00 25.8 C 17.09 g/m*3 25.8 C 8.1 km/h
277 27-06-2019 00:10:00 25.7 C 17.24 g/m*3 25.7 C 4.8 km/h
278 27-06-2019 00:15:00 25.5 C 17.05 g/m*3 25.5 C 3.2 km/h
279 27-06-2019 00:20:00 25.4 C 16.95 g/m*3 25.4 C 4.8 km/h
280 27-06-2019 00:25:00 25.3 C 17.09 g/m*3 25.3 C 4.8 km/h
281 27-06-2019 00:30:00 25.2 C 16.99 g/m*3 25.2 C 4.8 km/h
282 27-06-2019 00:35:00 25.1 C 17.13 g/m*3 25.1 C 6.4 km/h
283 27-06-2019 00:40:00 24.9 C 16.94 g/m*3 24.9 C 4.8 km/h
284 27-06-2019 00:45:00 24.8 C 16.84 g/m*3 24.8 C 4.8 km/h
285 27-06-2019 00:50:00 24.7 C 16.98 g/m*3 24.7 C 8.1 km/h
286 27-06-2019 00:55:00 24.7 C 16.98 g/m*3 24.7 C 9.7 km/h
287 27-06-2019 01:00:00 24.7 C 16.98 g/m*3 24.7 C 6.4 km/h
288 27-06-2019 01:05:00 24.6 C 16.88 g/m*3 24.6 C 4.8 km/h
289 27-06-2019 01:10:00 24.5 C 17.01 g/m*3 24.5 C 3.2 km/h
290 27-06-2019 01:15:00 24.3 C 16.82 g/m*3 24.3 C 1.6 km/h
291 27-06-2019 01:20:00 24.1 C 16.85 g/m*3 24.1 C 4.8 km/h
292 27-06-2019 01:25:00 23.9 C 16.66 g/m*3 23.9 C 4.8 km/h
293 27-06-2019 01:30:00 23.9 C 16.66 g/m*3 23.9 C 8.1 km/h
294 27-06-2019 01:35:00 23.9 C 16.66 g/m*3 23.9 C 6.4 km/h
295 27-06-2019 01:40:00 23.9 C 16.66 g/m*3 23.9 C 6.4 km/h
296 27-06-2019 01:45:00 23.9 C 16.66 g/m*3 23.9 C 4.8 km/h
297 27-06-2019 01:50:00 23.9 C 16.66 g/m*3 23.9 C 1.6 km/h
298 27-06-2019 01:55:00 23.8 C 16.56 g/m*3 23.8 C 3.2 km/h
299 27-06-2019 02:00:00 23.7 C 16.47 g/m*3 23.7 C 4.8 km/h
300 27-06-2019 02:05:00 23.6 C 16.59 g/m*3 23.6 C 0 km/h
Sensor: Nr:Datum:Temp:Abs-Feuchte:Windchill:Wind:
Aussen-T/F 301 27-06-2019 02:10:00 23.6 C 16.59 g/m*3 23.6 C 3.2 km/h
302 27-06-2019 02:15:00 23.4 C 16.61 g/m*3 23.4 C 0 km/h
303 27-06-2019 02:20:00 23.3 C 16.52 g/m*3 23.3 C 0 km/h
304 27-06-2019 02:25:00 23.2 C 16.42 g/m*3 23.2 C 3.2 km/h
305 27-06-2019 02:30:00 23.1 C 16.33 g/m*3 23.1 C 0 km/h
306 27-06-2019 02:35:00 23 C 16.24 g/m*3 23 C 4.8 km/h
307 27-06-2019 02:40:00 23.1 C 16.33 g/m*3 23.1 C 1.6 km/h
308 27-06-2019 02:45:00 23.1 C 16.33 g/m*3 23.1 C 4.8 km/h
309 27-06-2019 02:50:00 23 C 16.03 g/m*3 23 C 6.4 km/h
310 27-06-2019 02:55:00 23 C 16.03 g/m*3 23 C 3.2 km/h
311 27-06-2019 03:00:00 22.9 C 15.94 g/m*3 22.9 C 3.2 km/h
312 27-06-2019 03:05:00 22.9 C 15.94 g/m*3 22.9 C 3.2 km/h
313 27-06-2019 03:10:00 22.8 C 15.85 g/m*3 22.8 C 1.6 km/h
314 27-06-2019 03:15:00 22.6 C 15.67 g/m*3 22.6 C 3.2 km/h
315 27-06-2019 03:20:00 22.5 C 15.78 g/m*3 22.5 C 3.2 km/h
316 27-06-2019 03:25:00 22.3 C 15.4 g/m*3 22.3 C 4.8 km/h
317 27-06-2019 03:30:00 22.3 C 15.6 g/m*3 22.3 C 4.8 km/h
318 27-06-2019 03:35:00 22.2 C 15.31 g/m*3 22.2 C 3.2 km/h
319 27-06-2019 03:40:00 22.2 C 15.31 g/m*3 22.2 C 11.3 km/h
320 27-06-2019 03:45:00 22.2 C 15.31 g/m*3 22.2 C 4.8 km/h
321 27-06-2019 03:50:00 22.1 C 15.03 g/m*3 22.1 C 3.2 km/h
322 27-06-2019 03:55:00 22 C 14.94 g/m*3 22 C 6.4 km/h
323 27-06-2019 04:00:00 21.9 C 14.86 g/m*3 21.9 C 6.4 km/h
324 27-06-2019 04:05:00 21.9 C 14.86 g/m*3 21.9 C 6.4 km/h
325 27-06-2019 04:10:00 21.9 C 14.86 g/m*3 21.9 C 9.7 km/h
Sensor: Nr:Datum:Temp:Abs-Feuchte:Windchill:Wind:
Aussen-T/F 326 27-06-2019 04:15:00 21.8 C 14.58 g/m*3 21.8 C 6.4 km/h
327 27-06-2019 04:20:00 21.8 C 14.77 g/m*3 21.8 C 4.8 km/h
328 27-06-2019 04:25:00 21.7 C 14.69 g/m*3 21.7 C 6.4 km/h
329 27-06-2019 04:30:00 21.7 C 14.69 g/m*3 21.7 C 8.1 km/h
330 27-06-2019 04:35:00 21.6 C 14.6 g/m*3 21.6 C 3.2 km/h
331 27-06-2019 04:40:00 21.6 C 14.6 g/m*3 21.6 C 4.8 km/h
332 27-06-2019 04:45:00 21.4 C 14.44 g/m*3 21.4 C 11.3 km/h
333 27-06-2019 04:50:00 21.4 C 14.44 g/m*3 21.4 C 4.8 km/h
334 27-06-2019 04:55:00 21.3 C 14.54 g/m*3 21.3 C 0 km/h
335 27-06-2019 05:00:00 21.2 C 14.46 g/m*3 21.2 C 0 km/h
336 27-06-2019 05:05:00 20.9 C 14.39 g/m*3 20.9 C 1.6 km/h
337 27-06-2019 05:10:00 20.7 C 14.4 g/m*3 20.7 C 0 km/h
338 27-06-2019 05:15:00 20.6 C 14.32 g/m*3 20.6 C 0 km/h
339 27-06-2019 05:20:00 20.3 C 14.25 g/m*3 20.3 C 3.2 km/h
340 27-06-2019 05:25:00 20.2 C 13.99 g/m*3 20.2 C 6.4 km/h
341 27-06-2019 05:30:00 20.3 C 14.07 g/m*3 20.3 C 9.7 km/h
342 27-06-2019 05:35:00 20.4 C 13.98 g/m*3 20.4 C 6.4 km/h
343 27-06-2019 05:40:00 20.5 C 14.06 g/m*3 20.5 C 4.8 km/h
344 27-06-2019 05:45:00 20.5 C 14.06 g/m*3 20.5 C 4.8 km/h
345 27-06-2019 05:50:00 20.5 C 14.06 g/m*3 20.5 C 1.6 km/h
346 27-06-2019 05:55:00 20.4 C 13.98 g/m*3 20.4 C 0 km/h
347 27-06-2019 06:00:00 20.3 C 13.89 g/m*3 20.3 C 1.6 km/h
348 27-06-2019 06:05:00 20.3 C 13.89 g/m*3 20.3 C 4.8 km/h
349 27-06-2019 06:10:00 20.2 C 13.81 g/m*3 20.2 C 4.8 km/h
350 27-06-2019 06:15:00 20.2 C 13.99 g/m*3 20.2 C 1.6 km/h
Sensor: Nr:Datum:Temp:Abs-Feuchte:Windchill:Wind:
Aussen-T/F 351 27-06-2019 06:20:00 20.2 C 13.99 g/m*3 20.2 C 4.8 km/h
352 27-06-2019 06:25:00 20.1 C 14.08 g/m*3 20.1 C 0 km/h
353 27-06-2019 06:30:00 20 C 14 g/m*3 20 C 1.6 km/h
354 27-06-2019 06:35:00 19.9 C 13.92 g/m*3 19.9 C 1.6 km/h
355 27-06-2019 06:40:00 19.8 C 14.01 g/m*3 19.8 C 0 km/h
356 27-06-2019 06:45:00 19.8 C 14.01 g/m*3 19.8 C 0 km/h
357 27-06-2019 06:50:00 19.7 C 13.92 g/m*3 19.7 C 1.6 km/h
358 27-06-2019 06:55:00 19.7 C 14.09 g/m*3 19.7 C 0 km/h
359 27-06-2019 07:00:00 19.7 C 13.75 g/m*3 19.7 C 4.8 km/h
360 27-06-2019 07:05:00 19.7 C 13.75 g/m*3 19.7 C 4.8 km/h
361 27-06-2019 07:10:00 19.8 C 13.66 g/m*3 19.8 C 6.4 km/h
362 27-06-2019 07:15:00 19.9 C 13.74 g/m*3 19.9 C 4.8 km/h
363 27-06-2019 07:20:00 19.9 C 13.74 g/m*3 19.9 C 4.8 km/h
364 27-06-2019 07:25:00 20 C 13.83 g/m*3 20 C 8.1 km/h
365 27-06-2019 07:30:00 20.1 C 13.91 g/m*3 20.1 C 6.4 km/h
366 27-06-2019 07:35:00 20.2 C 13.81 g/m*3 20.2 C 6.4 km/h
367 27-06-2019 07:40:00 20.2 C 13.81 g/m*3 20.2 C 4.8 km/h
368 27-06-2019 07:45:00 20.3 C 13.89 g/m*3 20.3 C 6.4 km/h
369 27-06-2019 07:50:00 20.3 C 13.89 g/m*3 20.3 C 12.9 km/h
370 27-06-2019 07:55:00 20.3 C 13.89 g/m*3 20.3 C 6.4 km/h
371 27-06-2019 08:00:00 20.4 C 13.8 g/m*3 20.4 C 8.1 km/h
372 27-06-2019 08:05:00 20.4 C 13.8 g/m*3 20.4 C 6.4 km/h
373 27-06-2019 08:10:00 20.4 C 13.8 g/m*3 20.4 C 6.4 km/h
374 27-06-2019 08:15:00 20.6 C 13.96 g/m*3 20.6 C 6.4 km/h
375 27-06-2019 08:20:00 20.6 C 13.96 g/m*3 20.6 C 4.8 km/h
Sensor: Nr:Datum:Temp:Abs-Feuchte:Windchill:Wind:
Aussen-T/F 376 27-06-2019 08:25:00 20.6 C 13.78 g/m*3 20.6 C 6.4 km/h
377 27-06-2019 08:30:00 20.6 C 13.78 g/m*3 20.6 C 4.8 km/h
378 27-06-2019 08:35:00 20.6 C 13.78 g/m*3 20.6 C 4.8 km/h
379 27-06-2019 08:40:00 20.6 C 13.96 g/m*3 20.6 C 3.2 km/h
380 27-06-2019 08:45:00 20.7 C 14.04 g/m*3 20.7 C 4.8 km/h
381 27-06-2019 08:50:00 20.8 C 13.94 g/m*3 20.8 C 4.8 km/h
382 27-06-2019 08:55:00 20.9 C 13.84 g/m*3 20.9 C 11.3 km/h
383 27-06-2019 09:00:00 21 C 14.11 g/m*3 21 C 3.2 km/h
384 27-06-2019 09:05:00 21.2 C 14.08 g/m*3 21.2 C 9.7 km/h
385 27-06-2019 09:10:00 21.3 C 13.98 g/m*3 21.3 C 3.2 km/h
386 27-06-2019 09:15:00 21.3 C 13.79 g/m*3 21.3 C 9.7 km/h
387 27-06-2019 09:20:00 21.4 C 13.69 g/m*3 21.4 C 8.1 km/h
388 27-06-2019 09:25:00 21.4 C 13.87 g/m*3 21.4 C 8.1 km/h
389 27-06-2019 09:30:00 21.4 C 13.87 g/m*3 21.4 C 9.7 km/h
390 27-06-2019 09:35:00 21.5 C 13.95 g/m*3 21.5 C 9.7 km/h
391 27-06-2019 09:40:00 21.6 C 14.03 g/m*3 21.6 C 11.3 km/h
392 27-06-2019 09:45:00 21.7 C 13.93 g/m*3 21.7 C 9.7 km/h
393 27-06-2019 09:50:00 21.8 C 13.81 g/m*3 21.8 C 9.7 km/h
394 27-06-2019 09:55:00 21.9 C 13.89 g/m*3 21.9 C 8.1 km/h
395 27-06-2019 10:00:00 22 C 13.97 g/m*3 22 C 4.8 km/h
396 27-06-2019 10:05:00 22.1 C 13.86 g/m*3 22.1 C 9.7 km/h
397 27-06-2019 10:10:00 22.3 C 13.82 g/m*3 22.3 C 8.1 km/h
398 27-06-2019 10:15:00 22.4 C 13.7 g/m*3 22.4 C 11.3 km/h
399 27-06-2019 10:20:00 22.7 C 13.94 g/m*3 22.7 C 16.1 km/h
400 27-06-2019 10:25:00 22.8 C 13.82 g/m*3 22.8 C 9.7 km/h
Sensor: Nr:Datum:Temp:Abs-Feuchte:Windchill:Wind:
Aussen-T/F 401 27-06-2019 10:30:00 23.1 C 13.85 g/m*3 23.1 C 12.9 km/h
402 27-06-2019 10:35:00 23.2 C 13.93 g/m*3 23.2 C 8.1 km/h
403 27-06-2019 10:40:00 23.2 C 13.93 g/m*3 23.2 C 12.9 km/h
404 27-06-2019 10:45:00 23.4 C 13.88 g/m*3 23.4 C 9.7 km/h
405 27-06-2019 10:50:00 23.4 C 13.67 g/m*3 23.4 C 8.1 km/h
406 27-06-2019 10:55:00 23.4 C 13.67 g/m*3 23.4 C 9.7 km/h
407 27-06-2019 11:00:00 23.6 C 13.61 g/m*3 23.6 C 6.4 km/h
408 27-06-2019 11:05:00 23.6 C 13.61 g/m*3 23.6 C 6.4 km/h
409 27-06-2019 11:10:00 23.7 C 13.48 g/m*3 23.7 C 8.1 km/h
410 27-06-2019 11:15:00 23.7 C 13.69 g/m*3 23.7 C 4.8 km/h
411 27-06-2019 11:20:00 23.8 C 13.55 g/m*3 23.8 C 9.7 km/h
412 27-06-2019 11:25:00 24.1 C 13.57 g/m*3 24.1 C 9.7 km/h
413 27-06-2019 11:30:00 24.2 C 13.64 g/m*3 24.2 C 11.3 km/h
414 27-06-2019 11:35:00 24.3 C 13.28 g/m*3 24.3 C 11.3 km/h
415 27-06-2019 11:40:00 24.3 C 13.72 g/m*3 24.3 C 9.7 km/h
416 27-06-2019 11:45:00 24.3 C 13.28 g/m*3 24.3 C 8.1 km/h
417 27-06-2019 11:50:00 24.4 C 13.58 g/m*3 24.4 C 14.5 km/h
418 27-06-2019 11:55:00 24.4 C 13.35 g/m*3 24.4 C 9.7 km/h
419 27-06-2019 12:00:00 24.5 C 13.43 g/m*3 24.5 C 9.7 km/h
420 27-06-2019 12:05:00 24.7 C 13.81 g/m*3 24.7 C 16.1 km/h
421 27-06-2019 12:10:00 24.7 C 13.58 g/m*3 24.7 C 14.5 km/h
422 27-06-2019 12:15:00 24.7 C 13.35 g/m*3 24.7 C 14.5 km/h
423 27-06-2019 12:20:00 24.8 C 13.66 g/m*3 24.8 C 8.1 km/h
424 27-06-2019 12:25:00 24.8 C 13.43 g/m*3 24.8 C 9.7 km/h
425 27-06-2019 12:30:00 24.8 C 13.43 g/m*3 24.8 C 12.9 km/h
Sensor: Nr:Datum:Temp:Abs-Feuchte:Windchill:Wind:
Aussen-T/F 426 27-06-2019 12:35:00 24.8 C 13.2 g/m*3 24.8 C 14.5 km/h
427 27-06-2019 12:40:00 24.9 C 13.28 g/m*3 24.9 C 11.3 km/h
428 27-06-2019 12:45:00 25 C 13.35 g/m*3 25 C 9.7 km/h
429 27-06-2019 12:50:00 25.2 C 13.27 g/m*3 25.2 C 14.5 km/h
430 27-06-2019 12:55:00 25.2 C 13.5 g/m*3 25.2 C 9.7 km/h
431 27-06-2019 13:00:00 25.2 C 13.27 g/m*3 25.2 C 12.9 km/h
432 27-06-2019 13:05:00 25.5 C 13.02 g/m*3 25.5 C 8.1 km/h
433 27-06-2019 13:10:00 25.6 C 13.09 g/m*3 25.6 C 11.3 km/h
434 27-06-2019 13:15:00 25.6 C 12.86 g/m*3 25.6 C 9.7 km/h
435 27-06-2019 13:20:00 25.8 C 13 g/m*3 25.8 C 12.9 km/h
436 27-06-2019 13:25:00 25.9 C 12.83 g/m*3 25.9 C 11.3 km/h
437 27-06-2019 13:30:00 25.9 C 12.59 g/m*3 25.9 C 11.3 km/h
438 27-06-2019 13:35:00 26.1 C 12.73 g/m*3 26.1 C 12.9 km/h
439 27-06-2019 13:40:00 26.1 C 12.98 g/m*3 26.1 C 9.7 km/h
440 27-06-2019 13:45:00 26.2 C 12.8 g/m*3 26.2 C 9.7 km/h
441 27-06-2019 13:50:00 26.2 C 12.56 g/m*3 26.2 C 8.1 km/h
442 27-06-2019 13:55:00 26.4 C 12.7 g/m*3 26.4 C 9.7 km/h
443 27-06-2019 14:00:00 26.5 C 12.77 g/m*3 26.5 C 12.9 km/h
444 27-06-2019 14:05:00 26.6 C 12.59 g/m*3 26.6 C 9.7 km/h
445 27-06-2019 14:10:00 26.5 C 12.27 g/m*3 26.5 C 11.3 km/h
446 27-06-2019 14:15:00 26.6 C 12.84 g/m*3 26.6 C 11.3 km/h
447 27-06-2019 14:20:00 26.7 C 12.4 g/m*3 26.7 C 12.9 km/h
448 27-06-2019 14:25:00 26.8 C 12.22 g/m*3 26.8 C 11.3 km/h
449 27-06-2019 14:30:00 26.9 C 12.29 g/m*3 26.9 C 9.7 km/h
450 27-06-2019 14:35:00 27.1 C 12.68 g/m*3 27.1 C 11.3 km/h
Sensor: Nr:Datum:Temp:Abs-Feuchte:Windchill:Wind:
Aussen-T/F 451 27-06-2019 14:40:00 27.3 C 12.56 g/m*3 27.3 C 9.7 km/h
452 27-06-2019 14:45:00 27.6 C 12.24 g/m*3 27.6 C 9.7 km/h
453 27-06-2019 14:50:00 27.6 C 12.24 g/m*3 27.6 C 14.5 km/h
454 27-06-2019 14:55:00 27.6 C 11.97 g/m*3 27.6 C 12.9 km/h
455 27-06-2019 15:00:00 27.7 C 12.04 g/m*3 27.7 C 14.5 km/h
456 27-06-2019 15:05:00 27.8 C 11.83 g/m*3 27.8 C 12.9 km/h
457 27-06-2019 15:10:00 27.9 C 11.9 g/m*3 27.9 C 12.9 km/h
458 27-06-2019 15:15:00 28.1 C 12.3 g/m*3 28.1 C 14.5 km/h
459 27-06-2019 15:20:00 28.3 C 11.89 g/m*3 28.3 C 11.3 km/h
460 27-06-2019 15:25:00 28.6 C 11.8 g/m*3 28.6 C 14.5 km/h
461 27-06-2019 15:30:00 28.7 C 11.59 g/m*3 28.7 C 12.9 km/h
462 27-06-2019 15:35:00 28.9 C 10.86 g/m*3 28.9 C 16.1 km/h
463 27-06-2019 15:40:00 29 C 10.91 g/m*3 29 C 12.9 km/h
464 27-06-2019 15:45:00 29.2 C 11.03 g/m*3 29.2 C 9.7 km/h
465 27-06-2019 15:50:00 29.4 C 11.15 g/m*3 29.4 C 11.3 km/h
466 27-06-2019 15:55:00 29.6 C 10.98 g/m*3 29.6 C 11.3 km/h
467 27-06-2019 16:00:00 29.8 C 10.8 g/m*3 29.8 C 8.1 km/h
468 27-06-2019 16:05:00 29.9 C 10.56 g/m*3 29.9 C 11.3 km/h
469 27-06-2019 16:10:00 29.8 C 10.8 g/m*3 29.8 C 16.1 km/h
470 27-06-2019 16:15:00 29.9 C 9.95 g/m*3 29.9 C 12.9 km/h
471 27-06-2019 16:20:00 30 C 10.61 g/m*3 30 C 14.5 km/h
472 27-06-2019 16:25:00 30.3 C 10.17 g/m*3 30.3 C 14.5 km/h
473 27-06-2019 16:30:00 30.4 C 9.92 g/m*3 30.4 C 11.3 km/h
474 27-06-2019 16:35:00 30.6 C 10.02 g/m*3 30.6 C 16.1 km/h
475 27-06-2019 16:40:00 30.6 C 9.4 g/m*3 30.6 C 14.5 km/h
Sensor: Nr:Datum:Temp:Abs-Feuchte:Windchill:Wind:
Aussen-T/F 476 27-06-2019 16:45:00 30.5 C 9.03 g/m*3 30.5 C 12.9 km/h
477 27-06-2019 16:50:00 30.2 C 8.89 g/m*3 30.2 C 16.1 km/h
478 27-06-2019 16:55:00 30.2 C 8.89 g/m*3 30.2 C 14.5 km/h
479 27-06-2019 17:00:00 30.3 C 8.94 g/m*3 30.3 C 12.9 km/h
480 27-06-2019 17:05:00 30.6 C 8.77 g/m*3 30.6 C 16.1 km/h
481 27-06-2019 17:10:00 30.5 C 8.72 g/m*3 30.5 C 14.5 km/h
482 27-06-2019 17:15:00 30.4 C 8.68 g/m*3 30.4 C 8.1 km/h
483 27-06-2019 17:20:00 30.7 C 8.82 g/m*3 30.7 C 14.5 km/h
484 27-06-2019 17:25:00 30.7 C 8.82 g/m*3 30.7 C 14.5 km/h
485 27-06-2019 17:30:00 30.6 C 9.08 g/m*3 30.6 C 14.5 km/h
486 27-06-2019 17:35:00 30.5 C 8.41 g/m*3 30.5 C 14.5 km/h
487 27-06-2019 17:40:00 30.4 C 8.68 g/m*3 30.4 C 9.7 km/h
488 27-06-2019 17:45:00 30.5 C 8.41 g/m*3 30.5 C 16.1 km/h
489 27-06-2019 17:50:00 30.6 C 8.77 g/m*3 30.6 C 14.5 km/h
490 27-06-2019 17:55:00 30.7 C 8.82 g/m*3 30.7 C 16.1 km/h
491 27-06-2019 18:00:00 30.4 C 8.37 g/m*3 30.4 C 9.7 km/h
492 27-06-2019 18:05:00 30.3 C 8.01 g/m*3 30.3 C 11.3 km/h
493 27-06-2019 18:10:00 30.5 C 8.41 g/m*3 30.5 C 16.1 km/h
494 27-06-2019 18:15:00 30.3 C 8.01 g/m*3 30.3 C 14.5 km/h
495 27-06-2019 18:20:00 30.3 C 8.01 g/m*3 30.3 C 12.9 km/h
496 27-06-2019 18:25:00 30.2 C 7.97 g/m*3 30.2 C 14.5 km/h
497 27-06-2019 18:30:00 30.3 C 8.32 g/m*3 30.3 C 11.3 km/h
498 27-06-2019 18:35:00 30.2 C 8.28 g/m*3 30.2 C 9.7 km/h
499 27-06-2019 18:40:00 30 C 7.88 g/m*3 30 C 12.9 km/h
500 27-06-2019 18:45:00 30 C 7.88 g/m*3 30 C 9.7 km/h
Sensor: Nr:Datum:Temp:Abs-Feuchte:Windchill:Wind:
Aussen-T/F 501 27-06-2019 18:50:00 30.1 C 7.93 g/m*3 30.1 C 11.3 km/h
502 27-06-2019 18:55:00 30.1 C 7.93 g/m*3 30.1 C 11.3 km/h
503 27-06-2019 19:00:00 30.2 C 7.97 g/m*3 30.2 C 9.7 km/h
504 27-06-2019 19:05:00 30.3 C 8.32 g/m*3 30.3 C 9.7 km/h
505 27-06-2019 19:10:00 30.4 C 7.75 g/m*3 30.4 C 12.9 km/h
506 27-06-2019 19:15:00 30.3 C 7.4 g/m*3 30.3 C 12.9 km/h
507 27-06-2019 19:20:00 30.1 C 7.32 g/m*3 30.1 C 11.3 km/h
508 27-06-2019 19:25:00 29.8 C 7.5 g/m*3 29.8 C 14.5 km/h
509 27-06-2019 19:30:00 29.6 C 7.42 g/m*3 29.6 C 12.9 km/h
510 27-06-2019 19:35:00 29.2 C 7.26 g/m*3 29.2 C 11.3 km/h
511 27-06-2019 19:40:00 29 C 7.47 g/m*3 29 C 11.3 km/h
512 27-06-2019 19:45:00 28.8 C 7.39 g/m*3 28.8 C 12.9 km/h
513 27-06-2019 19:50:00 28.7 C 7.91 g/m*3 28.7 C 8.1 km/h
514 27-06-2019 19:55:00 28.7 C 7.91 g/m*3 28.7 C 8.1 km/h
515 27-06-2019 20:00:00 28.5 C 7.83 g/m*3 28.5 C 8.1 km/h
516 27-06-2019 20:05:00 28.3 C 8.02 g/m*3 28.3 C 9.7 km/h
517 27-06-2019 20:10:00 28.2 C 8.52 g/m*3 28.2 C 11.3 km/h
518 27-06-2019 20:15:00 28.1 C 8.75 g/m*3 28.1 C 4.8 km/h
519 27-06-2019 20:20:00 27.9 C 8.65 g/m*3 27.9 C 9.7 km/h
520 27-06-2019 20:25:00 27.6 C 8.51 g/m*3 27.6 C 9.7 km/h
521 27-06-2019 20:30:00 27.2 C 9.11 g/m*3 27.2 C 11.3 km/h
522 27-06-2019 20:35:00 27 C 8.49 g/m*3 27 C 8.1 km/h
523 27-06-2019 20:40:00 26.8 C 8.65 g/m*3 26.8 C 6.4 km/h
524 27-06-2019 20:45:00 26.7 C 8.86 g/m*3 26.7 C 6.4 km/h
525 27-06-2019 20:50:00 26.6 C 8.31 g/m*3 26.6 C 8.1 km/h
Sensor: Nr:Datum:Temp:Abs-Feuchte:Windchill:Wind:
Aussen-T/F 526 27-06-2019 20:55:00 26.3 C 8.91 g/m*3 26.3 C 8.1 km/h
527 27-06-2019 21:00:00 26.1 C 8.57 g/m*3 26.1 C 6.4 km/h
528 27-06-2019 21:05:00 25.8 C 8.67 g/m*3 25.8 C 3.2 km/h
529 27-06-2019 21:10:00 25.6 C 8.81 g/m*3 25.6 C 4.8 km/h
530 27-06-2019 21:15:00 25.3 C 8.66 g/m*3 25.3 C 3.2 km/h
531 27-06-2019 21:20:00 25.2 C 8.85 g/m*3 25.2 C 4.8 km/h
532 27-06-2019 21:25:00 24.9 C 9.61 g/m*3 24.9 C 1.6 km/h
533 27-06-2019 21:30:00 24.6 C 9.45 g/m*3 24.6 C 6.4 km/h
534 27-06-2019 21:35:00 24.1 C 9.63 g/m*3 24.1 C 4.8 km/h
535 27-06-2019 21:40:00 23.7 C 9.63 g/m*3 23.7 C 1.6 km/h
536 27-06-2019 21:45:00 23.2 C 9.77 g/m*3 23.2 C 1.6 km/h
537 27-06-2019 21:50:00 22.8 C 9.55 g/m*3 22.8 C 1.6 km/h
538 27-06-2019 21:55:00 22.5 C 9.99 g/m*3 22.5 C 1.6 km/h
539 27-06-2019 22:00:00 22.2 C 10.21 g/m*3 22.2 C 1.6 km/h
540 27-06-2019 22:05:00 22 C 9.9 g/m*3 22 C 4.8 km/h
541 27-06-2019 22:10:00 21.9 C 10.23 g/m*3 21.9 C 0 km/h
542 27-06-2019 22:15:00 21.7 C 10.11 g/m*3 21.7 C 1.6 km/h
543 27-06-2019 22:20:00 21.4 C 10.12 g/m*3 21.4 C 1.6 km/h
544 27-06-2019 22:25:00 21.3 C 10.25 g/m*3 21.3 C 3.2 km/h
545 27-06-2019 22:30:00 21.2 C 10.19 g/m*3 21.2 C 1.6 km/h
546 27-06-2019 22:35:00 21.1 C 10.5 g/m*3 21.1 C 0 km/h
547 27-06-2019 22:40:00 20.9 C 10.2 g/m*3 20.9 C 0 km/h
548 27-06-2019 22:45:00 20.7 C 10.26 g/m*3 20.7 C 1.6 km/h
549 27-06-2019 22:50:00 20.6 C 10.38 g/m*3 20.6 C 0 km/h
550 27-06-2019 22:55:00 20.4 C 10.44 g/m*3 20.4 C 1.6 km/h
Sensor: Nr:Datum:Temp:Abs-Feuchte:Windchill:Wind:
Aussen-T/F 551 27-06-2019 23:00:00 20.3 C 10.2 g/m*3 20.3 C 1.6 km/h
552 27-06-2019 23:05:00 20.4 C 10.26 g/m*3 20.4 C 4.8 km/h
553 27-06-2019 23:10:00 20.4 C 10.44 g/m*3 20.4 C 1.6 km/h
554 27-06-2019 23:15:00 20.3 C 10.38 g/m*3 20.3 C 0 km/h
555 27-06-2019 23:20:00 20.2 C 10.49 g/m*3 20.2 C 1.6 km/h
556 27-06-2019 23:25:00 20 C 10.54 g/m*3 20 C 1.6 km/h
557 27-06-2019 23:30:00 19.8 C 10.42 g/m*3 19.8 C 3.2 km/h
558 27-06-2019 23:35:00 19.8 C 10.59 g/m*3 19.8 C 0 km/h
559 27-06-2019 23:40:00 19.6 C 10.47 g/m*3 19.6 C 0 km/h
560 27-06-2019 23:45:00 19.5 C 10.57 g/m*3 19.5 C 1.6 km/h
561 27-06-2019 23:50:00 19.3 C 10.45 g/m*3 19.3 C 0 km/h
562 27-06-2019 23:55:00 19.2 C 10.55 g/m*3 19.2 C 0 km/h
563 28-06-2019 00:00:00 19.1 C 10.49 g/m*3 19.1 C 0 km/h
564 28-06-2019 00:05:00 19 C 10.43 g/m*3 19 C 0 km/h
565 28-06-2019 00:10:00 18.9 C 10.37 g/m*3 18.9 C 0 km/h
566 28-06-2019 00:15:00 18.8 C 10.63 g/m*3 18.8 C 0 km/h
567 28-06-2019 00:20:00 18.7 C 10.57 g/m*3 18.7 C 0 km/h
568 28-06-2019 00:25:00 18.6 C 10.5 g/m*3 18.6 C 0 km/h
569 28-06-2019 00:30:00 18.5 C 10.44 g/m*3 18.5 C 0 km/h
570 28-06-2019 00:35:00 18.4 C 10.38 g/m*3 18.4 C 0 km/h
571 28-06-2019 00:40:00 18.3 C 10.48 g/m*3 18.3 C 0 km/h
572 28-06-2019 00:45:00 18.2 C 10.41 g/m*3 18.2 C 0 km/h
573 28-06-2019 00:50:00 18 C 10.44 g/m*3 18 C 0 km/h
574 28-06-2019 00:55:00 17.9 C 10.54 g/m*3 17.9 C 0 km/h
575 28-06-2019 01:00:00 17.8 C 10.47 g/m*3 17.8 C 0 km/h
Sensor: Nr:Datum:Temp:Abs-Feuchte:Windchill:Wind:
Aussen-T/F 576 28-06-2019 01:05:00 17.7 C 10.41 g/m*3 17.7 C 0 km/h
577 28-06-2019 01:10:00 17.6 C 10.5 g/m*3 17.6 C 0 km/h
578 28-06-2019 01:15:00 17.4 C 10.37 g/m*3 17.4 C 0 km/h
579 28-06-2019 01:20:00 17.3 C 10.46 g/m*3 17.3 C 0 km/h
580 28-06-2019 01:25:00 17.2 C 10.54 g/m*3 17.2 C 0 km/h
581 28-06-2019 01:30:00 17.1 C 10.48 g/m*3 17.1 C 0 km/h
582 28-06-2019 01:35:00 17 C 10.56 g/m*3 17 C 0 km/h
583 28-06-2019 01:40:00 16.9 C 10.5 g/m*3 16.9 C 0 km/h
584 28-06-2019 01:45:00 16.8 C 10.44 g/m*3 16.8 C 0 km/h
585 28-06-2019 01:50:00 16.7 C 10.52 g/m*3 16.7 C 0 km/h
586 28-06-2019 01:55:00 16.7 C 10.52 g/m*3 16.7 C 0 km/h
587 28-06-2019 02:00:00 16.6 C 10.45 g/m*3 16.6 C 0 km/h
588 28-06-2019 02:05:00 16.6 C 10.59 g/m*3 16.6 C 0 km/h
589 28-06-2019 02:10:00 16.5 C 10.53 g/m*3 16.5 C 0 km/h
590 28-06-2019 02:15:00 16.4 C 10.47 g/m*3 16.4 C 0 km/h
591 28-06-2019 02:20:00 16.4 C 10.61 g/m*3 16.4 C 0 km/h
592 28-06-2019 02:25:00 16.3 C 10.68 g/m*3 16.3 C 0 km/h
593 28-06-2019 02:30:00 16.2 C 10.62 g/m*3 16.2 C 0 km/h
594 28-06-2019 02:35:00 16.2 C 10.62 g/m*3 16.2 C 0 km/h
595 28-06-2019 02:40:00 16.1 C 10.69 g/m*3 16.1 C 0 km/h
596 28-06-2019 02:45:00 16.1 C 10.69 g/m*3 16.1 C 0 km/h
597 28-06-2019 02:50:00 15.9 C 10.56 g/m*3 15.9 C 0 km/h
598 28-06-2019 02:55:00 15.9 C 10.56 g/m*3 15.9 C 0 km/h
599 28-06-2019 03:00:00 15.8 C 10.63 g/m*3 15.8 C 0 km/h
600 28-06-2019 03:05:00 15.8 C 10.63 g/m*3 15.8 C 0 km/h
Sensor: Nr:Datum:Temp:Abs-Feuchte:Windchill:Wind:
Aussen-T/F 601 28-06-2019 03:10:00 15.7 C 10.57 g/m*3 15.7 C 0 km/h
602 28-06-2019 03:15:00 15.7 C 10.57 g/m*3 15.7 C 0 km/h
603 28-06-2019 03:20:00 15.6 C 10.64 g/m*3 15.6 C 0 km/h
604 28-06-2019 03:25:00 15.6 C 10.64 g/m*3 15.6 C 0 km/h
605 28-06-2019 03:30:00 15.4 C 10.51 g/m*3 15.4 C 0 km/h
606 28-06-2019 03:35:00 15.4 C 10.64 g/m*3 15.4 C 0 km/h
607 28-06-2019 03:40:00 15.3 C 10.58 g/m*3 15.3 C 0 km/h
608 28-06-2019 03:45:00 15.3 C 10.58 g/m*3 15.3 C 0 km/h
609 28-06-2019 03:50:00 15.2 C 10.64 g/m*3 15.2 C 0 km/h
610 28-06-2019 03:55:00 15 C 10.51 g/m*3 15 C 0 km/h
611 28-06-2019 04:00:00 14.9 C 10.45 g/m*3 14.9 C 0 km/h
612 28-06-2019 04:05:00 14.8 C 10.51 g/m*3 14.8 C 0 km/h
613 28-06-2019 04:10:00 14.7 C 10.45 g/m*3 14.7 C 0 km/h
614 28-06-2019 04:15:00 14.6 C 10.39 g/m*3 14.6 C 0 km/h
615 28-06-2019 04:20:00 14.5 C 10.45 g/m*3 14.5 C 0 km/h
616 28-06-2019 04:25:00 14.4 C 10.38 g/m*3 14.4 C 0 km/h
617 28-06-2019 04:30:00 14.3 C 10.32 g/m*3 14.3 C 0 km/h
618 28-06-2019 04:35:00 14.2 C 10.38 g/m*3 14.2 C 0 km/h
619 28-06-2019 04:40:00 14.1 C 10.32 g/m*3 14.1 C 0 km/h
620 28-06-2019 04:45:00 14 C 10.37 g/m*3 14 C 0 km/h
621 28-06-2019 04:50:00 13.9 C 10.31 g/m*3 13.9 C 0 km/h
622 28-06-2019 04:55:00 13.8 C 10.25 g/m*3 13.8 C 0 km/h
623 28-06-2019 05:00:00 13.8 C 10.37 g/m*3 13.8 C 0 km/h
624 28-06-2019 05:05:00 13.7 C 10.18 g/m*3 13.7 C 0 km/h
625 28-06-2019 05:10:00 13.7 C 10.3 g/m*3 13.7 C 0 km/h
Sensor: Nr:Datum:Temp:Abs-Feuchte:Windchill:Wind:
Aussen-T/F 626 28-06-2019 05:15:00 13.7 C 10.3 g/m*3 13.7 C 0 km/h
627 28-06-2019 05:20:00 13.6 C 10.24 g/m*3 13.6 C 0 km/h
628 28-06-2019 05:25:00 13.5 C 10.18 g/m*3 13.5 C 0 km/h
629 28-06-2019 05:30:00 13.5 C 10.18 g/m*3 13.5 C 0 km/h
630 28-06-2019 05:35:00 13.4 C 10.23 g/m*3 13.4 C 0 km/h
631 28-06-2019 05:40:00 13.4 C 10.23 g/m*3 13.4 C 0 km/h
632 28-06-2019 05:45:00 13.3 C 10.17 g/m*3 13.3 C 0 km/h
633 28-06-2019 05:50:00 13.3 C 10.17 g/m*3 13.3 C 0 km/h
634 28-06-2019 05:55:00 13.3 C 10.28 g/m*3 13.3 C 0 km/h
635 28-06-2019 06:00:00 13.3 C 10.28 g/m*3 13.3 C 0 km/h
636 28-06-2019 06:05:00 13.3 C 10.28 g/m*3 13.3 C 0 km/h
637 28-06-2019 06:10:00 13.3 C 10.28 g/m*3 13.3 C 0 km/h
638 28-06-2019 06:15:00 13.3 C 10.28 g/m*3 13.3 C 0 km/h
639 28-06-2019 06:20:00 13.3 C 10.4 g/m*3 13.3 C 0 km/h
640 28-06-2019 06:25:00 13.3 C 10.4 g/m*3 13.3 C 0 km/h
641 28-06-2019 06:30:00 13.3 C 10.4 g/m*3 13.3 C 0 km/h
642 28-06-2019 06:35:00 13.4 C 10.46 g/m*3 13.4 C 0 km/h
643 28-06-2019 06:40:00 13.4 C 10.46 g/m*3 13.4 C 0 km/h
644 28-06-2019 06:45:00 13.4 C 10.46 g/m*3 13.4 C 0 km/h
645 28-06-2019 06:50:00 13.5 C 10.53 g/m*3 13.5 C 0 km/h
646 28-06-2019 06:55:00 13.5 C 10.64 g/m*3 13.5 C 0 km/h
647 28-06-2019 07:00:00 13.6 C 10.71 g/m*3 13.6 C 0 km/h
648 28-06-2019 07:05:00 13.6 C 10.71 g/m*3 13.6 C 0 km/h
649 28-06-2019 07:10:00 13.7 C 10.78 g/m*3 13.7 C 0 km/h
650 28-06-2019 07:15:00 13.7 C 10.78 g/m*3 13.7 C 0 km/h
Sensor: Nr:Datum:Temp:Abs-Feuchte:Windchill:Wind:
Aussen-T/F 651 28-06-2019 07:20:00 13.8 C 10.84 g/m*3 13.8 C 0 km/h
652 28-06-2019 07:25:00 13.8 C 10.72 g/m*3 13.8 C 0 km/h
653 28-06-2019 07:30:00 13.8 C 10.72 g/m*3 13.8 C 0 km/h
654 28-06-2019 07:35:00 13.9 C 10.91 g/m*3 13.9 C 0 km/h
655 28-06-2019 07:40:00 14 C 10.98 g/m*3 14 C 0 km/h
656 28-06-2019 07:45:00 14.1 C 11.04 g/m*3 14.1 C 0 km/h
657 28-06-2019 07:50:00 14.2 C 11.11 g/m*3 14.2 C 0 km/h
658 28-06-2019 07:55:00 14.2 C 11.11 g/m*3 14.2 C 0 km/h
659 28-06-2019 08:00:00 14.3 C 11.18 g/m*3 14.3 C 0 km/h
660 28-06-2019 08:05:00 14.4 C 11.13 g/m*3 14.4 C 0 km/h
661 28-06-2019 08:10:00 14.6 C 11.26 g/m*3 14.6 C 1.6 km/h
662 28-06-2019 08:15:00 14.7 C 11.21 g/m*3 14.7 C 1.6 km/h
663 28-06-2019 08:20:00 14.9 C 11.22 g/m*3 14.9 C 4.8 km/h
664 28-06-2019 08:25:00 15.2 C 11.16 g/m*3 15.2 C 0 km/h
665 28-06-2019 08:30:00 15.5 C 11.24 g/m*3 15.5 C 4.8 km/h
666 28-06-2019 08:35:00 15.9 C 11.1 g/m*3 15.9 C 6.4 km/h
667 28-06-2019 08:40:00 16.2 C 11.17 g/m*3 16.2 C 6.4 km/h
668 28-06-2019 08:45:00 16.3 C 11.38 g/m*3 16.3 C 0 km/h
669 28-06-2019 08:50:00 16.3 C 11.24 g/m*3 16.3 C 0 km/h
670 28-06-2019 08:55:00 16.4 C 11.31 g/m*3 16.4 C 3.2 km/h
671 28-06-2019 09:00:00 16.6 C 11.3 g/m*3 16.6 C 6.4 km/h
672 28-06-2019 09:05:00 16.9 C 11.22 g/m*3 16.9 C 6.4 km/h
673 28-06-2019 09:10:00 17.2 C 11.28 g/m*3 17.2 C 4.8 km/h
674 28-06-2019 09:15:00 17.4 C 11.26 g/m*3 17.4 C 0 km/h
675 28-06-2019 09:20:00 17.6 C 11.25 g/m*3 17.6 C 1.6 km/h
Sensor: Nr:Datum:Temp:Abs-Feuchte:Windchill:Wind:
Aussen-T/F 676 28-06-2019 09:25:00 17.7 C 11.16 g/m*3 17.7 C 1.6 km/h
677 28-06-2019 09:30:00 17.8 C 11.38 g/m*3 17.8 C 1.6 km/h
678 28-06-2019 09:35:00 17.9 C 11.3 g/m*3 17.9 C 1.6 km/h
679 28-06-2019 09:40:00 18.1 C 11.28 g/m*3 18.1 C 4.8 km/h
680 28-06-2019 09:45:00 18.2 C 11.5 g/m*3 18.2 C 4.8 km/h
681 28-06-2019 09:50:00 18.4 C 11.32 g/m*3 18.4 C 6.4 km/h
682 28-06-2019 09:55:00 18.6 C 11.3 g/m*3 18.6 C 4.8 km/h
683 28-06-2019 10:00:00 18.8 C 11.43 g/m*3 18.8 C 8.1 km/h
684 28-06-2019 10:05:00 18.8 C 11.27 g/m*3 18.8 C 4.8 km/h
685 28-06-2019 10:10:00 18.9 C 11.34 g/m*3 18.9 C 4.8 km/h
686 28-06-2019 10:15:00 19.1 C 11.47 g/m*3 19.1 C 3.2 km/h
687 28-06-2019 10:20:00 19.4 C 11.68 g/m*3 19.4 C 6.4 km/h
688 28-06-2019 10:25:00 19.7 C 11.38 g/m*3 19.7 C 4.8 km/h
689 28-06-2019 10:30:00 20.1 C 11.82 g/m*3 20.1 C 4.8 km/h
690 28-06-2019 10:35:00 20.4 C 11.5 g/m*3 20.4 C 4.8 km/h
691 28-06-2019 10:40:00 20.6 C 11.63 g/m*3 20.6 C 4.8 km/h
692 28-06-2019 10:45:00 20.6 C 11.63 g/m*3 20.6 C 4.8 km/h
693 28-06-2019 10:50:00 20.6 C 11.63 g/m*3 20.6 C 4.8 km/h
694 28-06-2019 10:55:00 20.8 C 11.41 g/m*3 20.8 C 6.4 km/h
695 28-06-2019 11:00:00 20.9 C 11.47 g/m*3 20.9 C 4.8 km/h
696 28-06-2019 11:05:00 20.9 C 11.29 g/m*3 20.9 C 4.8 km/h
697 28-06-2019 11:10:00 21.1 C 11.42 g/m*3 21.1 C 1.6 km/h
698 28-06-2019 11:15:00 21.2 C 11.12 g/m*3 21.2 C 6.4 km/h
699 28-06-2019 11:20:00 21.3 C 11.18 g/m*3 21.3 C 6.4 km/h
700 28-06-2019 11:25:00 21.5 C 11.13 g/m*3 21.5 C 3.2 km/h
Sensor: Nr:Datum:Temp:Abs-Feuchte:Windchill:Wind:
Aussen-T/F 701 28-06-2019 11:30:00 21.7 C 11.25 g/m*3 21.7 C 8.1 km/h
702 28-06-2019 11:35:00 21.8 C 11.51 g/m*3 21.8 C 6.4 km/h
703 28-06-2019 11:40:00 21.8 C 11.51 g/m*3 21.8 C 8.1 km/h
704 28-06-2019 11:45:00 21.8 C 11.51 g/m*3 21.8 C 6.4 km/h
705 28-06-2019 11:50:00 21.8 C 11.32 g/m*3 21.8 C 9.7 km/h
706 28-06-2019 11:55:00 21.9 C 11.58 g/m*3 21.9 C 9.7 km/h
707 28-06-2019 12:00:00 22.2 C 11.58 g/m*3 22.2 C 4.8 km/h
708 28-06-2019 12:05:00 22.3 C 11.45 g/m*3 22.3 C 8.1 km/h
709 28-06-2019 12:10:00 22.5 C 11.58 g/m*3 22.5 C 8.1 km/h
710 28-06-2019 12:15:00 22.6 C 11.65 g/m*3 22.6 C 6.4 km/h
711 28-06-2019 12:20:00 22.6 C 11.45 g/m*3 22.6 C 6.4 km/h
712 28-06-2019 12:25:00 22.7 C 11.31 g/m*3 22.7 C 4.8 km/h
713 28-06-2019 12:30:00 22.8 C 11.18 g/m*3 22.8 C 14.5 km/h
714 28-06-2019 12:35:00 23.1 C 11.16 g/m*3 23.1 C 9.7 km/h
715 28-06-2019 12:40:00 23.2 C 11.43 g/m*3 23.2 C 6.4 km/h
716 28-06-2019 12:45:00 23.2 C 11.23 g/m*3 23.2 C 9.7 km/h
717 28-06-2019 12:50:00 23.3 C 11.08 g/m*3 23.3 C 8.1 km/h
718 28-06-2019 12:55:00 23.6 C 10.85 g/m*3 23.6 C 9.7 km/h
719 28-06-2019 13:00:00 23.7 C 10.91 g/m*3 23.7 C 6.4 km/h
720 28-06-2019 13:05:00 23.8 C 10.97 g/m*3 23.8 C 11.3 km/h
721 28-06-2019 13:10:00 24.1 C 10.72 g/m*3 24.1 C 14.5 km/h
722 28-06-2019 13:15:00 24.2 C 10.78 g/m*3 24.2 C 6.4 km/h
723 28-06-2019 13:20:00 24.3 C 10.84 g/m*3 24.3 C 9.7 km/h
724 28-06-2019 13:25:00 24.6 C 10.8 g/m*3 24.6 C 11.3 km/h
725 28-06-2019 13:30:00 24.9 C 10.53 g/m*3 24.9 C 11.3 km/h
Sensor: Nr:Datum:Temp:Abs-Feuchte:Windchill:Wind:
Aussen-T/F 726 28-06-2019 13:35:00 25 C 10.36 g/m*3 25 C 8.1 km/h
727 28-06-2019 13:40:00 25.1 C 10.42 g/m*3 25.1 C 12.9 km/h
728 28-06-2019 13:45:00 25.2 C 10.71 g/m*3 25.2 C 8.1 km/h
729 28-06-2019 13:50:00 25.4 C 10.36 g/m*3 25.4 C 8.1 km/h
730 28-06-2019 13:55:00 25.7 C 10.53 g/m*3 25.7 C 9.7 km/h
731 28-06-2019 14:00:00 25.8 C 10.35 g/m*3 25.8 C 11.3 km/h
732 28-06-2019 14:05:00 25.7 C 10.29 g/m*3 25.7 C 4.8 km/h
733 28-06-2019 14:10:00 25.7 C 10.77 g/m*3 25.7 C 8.1 km/h
734 28-06-2019 14:15:00 25.9 C 10.65 g/m*3 25.9 C 12.9 km/h
735 28-06-2019 14:20:00 26.1 C 10.28 g/m*3 26.1 C 9.7 km/h
736 28-06-2019 14:25:00 26.2 C 10.83 g/m*3 26.2 C 9.7 km/h
737 28-06-2019 14:30:00 26.4 C 10.21 g/m*3 26.4 C 8.1 km/h
738 28-06-2019 14:35:00 26.6 C 10.82 g/m*3 26.6 C 8.1 km/h
739 28-06-2019 14:40:00 26.7 C 10.63 g/m*3 26.7 C 8.1 km/h
740 28-06-2019 14:45:00 26.9 C 10.24 g/m*3 26.9 C 8.1 km/h
741 28-06-2019 14:50:00 26.9 C 10.24 g/m*3 26.9 C 9.7 km/h
742 28-06-2019 14:55:00 26.9 C 10.49 g/m*3 26.9 C 8.1 km/h
743 28-06-2019 15:00:00 27.1 C 10.61 g/m*3 27.1 C 6.4 km/h
744 28-06-2019 15:05:00 27.3 C 11.51 g/m*3 27.3 C 4.8 km/h
745 28-06-2019 15:10:00 27.7 C 10.97 g/m*3 27.7 C 8.1 km/h
746 28-06-2019 15:15:00 27.8 C 9.95 g/m*3 27.8 C 12.9 km/h
747 28-06-2019 15:20:00 27.9 C 10.28 g/m*3 27.9 C 11.3 km/h
748 28-06-2019 15:25:00 28 C 10.61 g/m*3 28 C 11.3 km/h
749 28-06-2019 15:30:00 28.2 C 10.72 g/m*3 28.2 C 6.4 km/h
750 28-06-2019 15:35:00 28.4 C 10.28 g/m*3 28.4 C 8.1 km/h
Sensor: Nr:Datum:Temp:Abs-Feuchte:Windchill:Wind:
Aussen-T/F 751 28-06-2019 15:40:00 28.7 C 10.74 g/m*3 28.7 C 6.4 km/h
752 28-06-2019 15:45:00 28.9 C 10.57 g/m*3 28.9 C 11.3 km/h
753 28-06-2019 15:50:00 29.2 C 10.74 g/m*3 29.2 C 4.8 km/h
754 28-06-2019 15:55:00 29.5 C 10.33 g/m*3 29.5 C 4.8 km/h
755 28-06-2019 16:00:00 29.7 C 10.44 g/m*3 29.7 C 12.9 km/h
756 28-06-2019 16:05:00 29.9 C 10.25 g/m*3 29.9 C 6.4 km/h
757 28-06-2019 16:10:00 30.1 C 10.37 g/m*3 30.1 C 8.1 km/h
758 28-06-2019 16:15:00 30.1 C 10.06 g/m*3 30.1 C 9.7 km/h
759 28-06-2019 16:20:00 30.2 C 10.12 g/m*3 30.2 C 6.4 km/h
760 28-06-2019 16:25:00 30.3 C 10.48 g/m*3 30.3 C 8.1 km/h
761 28-06-2019 16:30:00 30.4 C 10.54 g/m*3 30.4 C 11.3 km/h
762 28-06-2019 16:35:00 30.4 C 10.54 g/m*3 30.4 C 6.4 km/h
763 28-06-2019 16:40:00 30.4 C 9.92 g/m*3 30.4 C 6.4 km/h
764 28-06-2019 16:45:00 30.3 C 10.48 g/m*3 30.3 C 11.3 km/h
765 28-06-2019 16:50:00 30.4 C 10.54 g/m*3 30.4 C 8.1 km/h
766 28-06-2019 16:55:00 30.8 C 10.13 g/m*3 30.8 C 11.3 km/h
767 28-06-2019 17:00:00 30.8 C 9.81 g/m*3 30.8 C 9.7 km/h
768 28-06-2019 17:05:00 30.6 C 10.34 g/m*3 30.6 C 6.4 km/h
769 28-06-2019 17:10:00 30.8 C 9.81 g/m*3 30.8 C 6.4 km/h
770 28-06-2019 17:15:00 31.1 C 10.3 g/m*3 31.1 C 4.8 km/h
771 28-06-2019 17:20:00 31.2 C 9.38 g/m*3 31.2 C 20.9 km/h
772 28-06-2019 17:25:00 31.1 C 9.65 g/m*3 31.1 C 6.4 km/h
773 28-06-2019 17:30:00 31.2 C 9.06 g/m*3 31.2 C 9.7 km/h
774 28-06-2019 17:35:00 31.2 C 9.38 g/m*3 31.2 C 9.7 km/h
775 28-06-2019 17:40:00 31.1 C 8.69 g/m*3 31.1 C 9.7 km/h
Sensor: Nr:Datum:Temp:Abs-Feuchte:Windchill:Wind:
Aussen-T/F 776 28-06-2019 17:45:00 31.3 C 9.43 g/m*3 31.3 C 4.8 km/h
777 28-06-2019 17:50:00 31.5 C 9.53 g/m*3 31.5 C 6.4 km/h
778 28-06-2019 17:55:00 31.7 C 9.63 g/m*3 31.7 C 8.1 km/h
779 28-06-2019 18:00:00 31.7 C 8.97 g/m*3 31.7 C 11.3 km/h
780 28-06-2019 18:05:00 31.6 C 9.25 g/m*3 31.6 C 8.1 km/h
781 28-06-2019 18:10:00 31.6 C 8.92 g/m*3 31.6 C 4.8 km/h
782 28-06-2019 18:15:00 31.7 C 8.97 g/m*3 31.7 C 8.1 km/h
783 28-06-2019 18:20:00 31.7 C 8.97 g/m*3 31.7 C 9.7 km/h
784 28-06-2019 18:25:00 31.7 C 9.3 g/m*3 31.7 C 6.4 km/h
785 28-06-2019 18:30:00 31.6 C 9.25 g/m*3 31.6 C 8.1 km/h
786 28-06-2019 18:35:00 31.6 C 9.58 g/m*3 31.6 C 6.4 km/h
787 28-06-2019 18:40:00 31.7 C 9.3 g/m*3 31.7 C 11.3 km/h
788 28-06-2019 18:45:00 31.7 C 9.63 g/m*3 31.7 C 6.4 km/h
789 28-06-2019 18:50:00 31.7 C 9.63 g/m*3 31.7 C 6.4 km/h
790 28-06-2019 18:55:00 31.7 C 9.63 g/m*3 31.7 C 4.8 km/h
791 28-06-2019 19:00:00 31.5 C 9.2 g/m*3 31.5 C 8.1 km/h
792 28-06-2019 19:05:00 31.3 C 9.43 g/m*3 31.3 C 6.4 km/h
793 28-06-2019 19:10:00 31.4 C 9.48 g/m*3 31.4 C 6.4 km/h
794 28-06-2019 19:15:00 31.6 C 9.91 g/m*3 31.6 C 4.8 km/h
795 28-06-2019 19:20:00 31.6 C 9.91 g/m*3 31.6 C 6.4 km/h
796 28-06-2019 19:25:00 31.6 C 9.91 g/m*3 31.6 C 4.8 km/h
797 28-06-2019 19:30:00 31.4 C 9.81 g/m*3 31.4 C 8.1 km/h
798 28-06-2019 19:35:00 31.2 C 9.7 g/m*3 31.2 C 6.4 km/h
799 28-06-2019 19:40:00 31 C 9.6 g/m*3 31 C 4.8 km/h
800 28-06-2019 19:45:00 30.9 C 9.87 g/m*3 30.9 C 4.8 km/h
Sensor: Nr:Datum:Temp:Abs-Feuchte:Windchill:Wind:
Aussen-T/F 801 28-06-2019 19:50:00 30.6 C 10.02 g/m*3 30.6 C 8.1 km/h
802 28-06-2019 19:55:00 30.3 C 9.86 g/m*3 30.3 C 9.7 km/h
803 28-06-2019 20:00:00 30.1 C 10.06 g/m*3 30.1 C 11.3 km/h
804 28-06-2019 20:05:00 29.8 C 9.9 g/m*3 29.8 C 9.7 km/h
805 28-06-2019 20:10:00 29.7 C 10.14 g/m*3 29.7 C 9.7 km/h
806 28-06-2019 20:15:00 29.6 C 10.09 g/m*3 29.6 C 8.1 km/h
807 28-06-2019 20:20:00 29.6 C 10.98 g/m*3 29.6 C 3.2 km/h
808 28-06-2019 20:25:00 29.6 C 11.87 g/m*3 29.6 C 0 km/h
809 28-06-2019 20:30:00 29.5 C 10.63 g/m*3 29.5 C 3.2 km/h
810 28-06-2019 20:35:00 29.4 C 11.15 g/m*3 29.4 C 1.6 km/h
811 28-06-2019 20:40:00 29.3 C 11.09 g/m*3 29.3 C 1.6 km/h
812 28-06-2019 20:45:00 29.3 C 11.97 g/m*3 29.3 C 0 km/h
813 28-06-2019 20:50:00 29.1 C 10.4 g/m*3 29.1 C 1.6 km/h
814 28-06-2019 20:55:00 28.9 C 12 g/m*3 28.9 C 1.6 km/h
815 28-06-2019 21:00:00 28.6 C 12.08 g/m*3 28.6 C 0 km/h
816 28-06-2019 21:05:00 28.1 C 12.3 g/m*3 28.1 C 0 km/h
817 28-06-2019 21:10:00 27.6 C 11.71 g/m*3 27.6 C 0 km/h
818 28-06-2019 21:15:00 26.9 C 11.52 g/m*3 26.9 C 0 km/h
819 28-06-2019 21:20:00 26.3 C 11.64 g/m*3 26.3 C 0 km/h
820 28-06-2019 21:25:00 25.7 C 11.73 g/m*3 25.7 C 0 km/h
821 28-06-2019 21:30:00 25.1 C 11.34 g/m*3 25.1 C 1.6 km/h
822 28-06-2019 21:35:00 24.6 C 11.25 g/m*3 24.6 C 1.6 km/h
823 28-06-2019 21:40:00 24.2 C 11.22 g/m*3 24.2 C 1.6 km/h
824 28-06-2019 21:45:00 23.8 C 10.97 g/m*3 23.8 C 1.6 km/h
825 28-06-2019 21:50:00 23.4 C 10.93 g/m*3 23.4 C 1.6 km/h
Sensor: Nr:Datum:Temp:Abs-Feuchte:Windchill:Wind:
Aussen-T/F 826 28-06-2019 21:55:00 23.1 C 10.75 g/m*3 23.1 C 1.6 km/h
827 28-06-2019 22:00:00 22.8 C 10.57 g/m*3 22.8 C 1.6 km/h
828 28-06-2019 22:05:00 22.6 C 10.25 g/m*3 22.6 C 1.6 km/h
829 28-06-2019 22:10:00 22.4 C 10.13 g/m*3 22.4 C 0 km/h
830 28-06-2019 22:15:00 22.2 C 10.21 g/m*3 22.2 C 0 km/h
831 28-06-2019 22:20:00 21.9 C 10.03 g/m*3 21.9 C 0 km/h
832 28-06-2019 22:25:00 21.8 C 10.36 g/m*3 21.8 C 1.6 km/h
833 28-06-2019 22:30:00 21.5 C 10.37 g/m*3 21.5 C 0 km/h
834 28-06-2019 22:35:00 21.3 C 10.25 g/m*3 21.3 C 0 km/h
835 28-06-2019 22:40:00 21 C 10.44 g/m*3 21 C 0 km/h
836 28-06-2019 22:45:00 20.7 C 10.44 g/m*3 20.7 C 0 km/h
837 28-06-2019 22:50:00 20.5 C 10.5 g/m*3 20.5 C 0 km/h
838 28-06-2019 22:55:00 20.3 C 10.55 g/m*3 20.3 C 0 km/h
839 28-06-2019 23:00:00 20.2 C 10.67 g/m*3 20.2 C 0 km/h
840 28-06-2019 23:05:00 19.9 C 10.48 g/m*3 19.9 C 0 km/h
841 28-06-2019 23:10:00 19.7 C 10.53 g/m*3 19.7 C 0 km/h
842 28-06-2019 23:15:00 19.6 C 10.47 g/m*3 19.6 C 0 km/h
843 28-06-2019 23:20:00 19.4 C 10.51 g/m*3 19.4 C 0 km/h
844 28-06-2019 23:25:00 19.3 C 10.62 g/m*3 19.3 C 0 km/h
845 28-06-2019 23:30:00 19.1 C 10.49 g/m*3 19.1 C 0 km/h
846 28-06-2019 23:35:00 19 C 10.59 g/m*3 19 C 0 km/h
847 28-06-2019 23:40:00 18.9 C 10.53 g/m*3 18.9 C 0 km/h
848 28-06-2019 23:45:00 18.8 C 10.47 g/m*3 18.8 C 0 km/h
849 28-06-2019 23:50:00 18.7 C 10.57 g/m*3 18.7 C 0 km/h
850 28-06-2019 23:55:00 18.7 C 10.57 g/m*3 18.7 C 0 km/h
Sensor: Nr:Datum:Temp:Abs-Feuchte:Windchill:Wind:
Aussen-T/F 851 29-06-2019 00:00:00 18.7 C 10.57 g/m*3 18.7 C 1.6 km/h
852 29-06-2019 00:05:00 18.6 C 10.35 g/m*3 18.6 C 0 km/h
853 29-06-2019 00:10:00 18.6 C 10.35 g/m*3 18.6 C 1.6 km/h
854 29-06-2019 00:15:00 18.6 C 10.35 g/m*3 18.6 C 0 km/h
855 29-06-2019 00:20:00 18.5 C 10.44 g/m*3 18.5 C 0 km/h
856 29-06-2019 00:25:00 18.4 C 10.38 g/m*3 18.4 C 0 km/h
857 29-06-2019 00:30:00 18.4 C 10.38 g/m*3 18.4 C 0 km/h
858 29-06-2019 00:35:00 18.3 C 10.32 g/m*3 18.3 C 0 km/h
859 29-06-2019 00:40:00 18.3 C 10.32 g/m*3 18.3 C 0 km/h
860 29-06-2019 00:45:00 18.2 C 10.26 g/m*3 18.2 C 0 km/h
861 29-06-2019 00:50:00 18.2 C 10.41 g/m*3 18.2 C 1.6 km/h
862 29-06-2019 00:55:00 18.1 C 10.35 g/m*3 18.1 C 0 km/h
863 29-06-2019 01:00:00 18.1 C 10.35 g/m*3 18.1 C 3.2 km/h
864 29-06-2019 01:05:00 18 C 10.29 g/m*3 18 C 0 km/h
865 29-06-2019 01:10:00 17.9 C 10.38 g/m*3 17.9 C 0 km/h
866 29-06-2019 01:15:00 17.9 C 10.38 g/m*3 17.9 C 0 km/h
867 29-06-2019 01:20:00 17.9 C 10.38 g/m*3 17.9 C 3.2 km/h
868 29-06-2019 01:25:00 17.8 C 10.47 g/m*3 17.8 C 0 km/h
869 29-06-2019 01:30:00 17.8 C 10.47 g/m*3 17.8 C 0 km/h
870 29-06-2019 01:35:00 17.8 C 10.32 g/m*3 17.8 C 0 km/h
871 29-06-2019 01:40:00 17.8 C 10.32 g/m*3 17.8 C 0 km/h
872 29-06-2019 01:45:00 17.7 C 10.26 g/m*3 17.7 C 0 km/h
873 29-06-2019 01:50:00 17.7 C 10.26 g/m*3 17.7 C 0 km/h
874 29-06-2019 01:55:00 17.6 C 10.35 g/m*3 17.6 C 0 km/h
875 29-06-2019 02:00:00 17.6 C 10.35 g/m*3 17.6 C 0 km/h
Sensor: Nr:Datum:Temp:Abs-Feuchte:Windchill:Wind:
Aussen-T/F 876 29-06-2019 02:05:00 17.4 C 10.23 g/m*3 17.4 C 0 km/h
877 29-06-2019 02:10:00 17.3 C 10.16 g/m*3 17.3 C 0 km/h
878 29-06-2019 02:15:00 17.3 C 10.31 g/m*3 17.3 C 0 km/h
879 29-06-2019 02:20:00 17.2 C 10.4 g/m*3 17.2 C 0 km/h
880 29-06-2019 02:25:00 17.1 C 10.34 g/m*3 17.1 C 0 km/h
881 29-06-2019 02:30:00 17 C 10.27 g/m*3 17 C 0 km/h
882 29-06-2019 02:35:00 16.9 C 10.21 g/m*3 16.9 C 0 km/h
883 29-06-2019 02:40:00 16.9 C 10.36 g/m*3 16.9 C 1.6 km/h
884 29-06-2019 02:45:00 16.8 C 10.29 g/m*3 16.8 C 0 km/h
885 29-06-2019 02:50:00 16.8 C 10.44 g/m*3 16.8 C 0 km/h
886 29-06-2019 02:55:00 16.8 C 10.44 g/m*3 16.8 C 0 km/h
887 29-06-2019 03:00:00 16.7 C 10.37 g/m*3 16.7 C 0 km/h
888 29-06-2019 03:05:00 16.7 C 10.37 g/m*3 16.7 C 0 km/h
889 29-06-2019 03:10:00 16.6 C 10.45 g/m*3 16.6 C 0 km/h
890 29-06-2019 03:15:00 16.6 C 10.45 g/m*3 16.6 C 0 km/h
891 29-06-2019 03:20:00 16.5 C 10.39 g/m*3 16.5 C 0 km/h
892 29-06-2019 03:25:00 16.4 C 10.33 g/m*3 16.4 C 0 km/h
893 29-06-2019 03:30:00 16.4 C 10.33 g/m*3 16.4 C 0 km/h
894 29-06-2019 03:35:00 16.3 C 10.41 g/m*3 16.3 C 0 km/h
895 29-06-2019 03:40:00 16.3 C 10.41 g/m*3 16.3 C 0 km/h
896 29-06-2019 03:45:00 16.2 C 10.34 g/m*3 16.2 C 0 km/h
897 29-06-2019 03:50:00 16.1 C 10.28 g/m*3 16.1 C 0 km/h
898 29-06-2019 03:55:00 15.9 C 10.29 g/m*3 15.9 C 0 km/h
899 29-06-2019 04:00:00 15.8 C 10.23 g/m*3 15.8 C 0 km/h
900 29-06-2019 04:05:00 15.7 C 10.3 g/m*3 15.7 C 0 km/h
Sensor: Nr:Datum:Temp:Abs-Feuchte:Windchill:Wind:
Aussen-T/F 901 29-06-2019 04:10:00 15.6 C 10.24 g/m*3 15.6 C 0 km/h
902 29-06-2019 04:15:00 15.4 C 10.25 g/m*3 15.4 C 0 km/h
903 29-06-2019 04:20:00 15.3 C 10.19 g/m*3 15.3 C 0 km/h
904 29-06-2019 04:25:00 15.2 C 10.12 g/m*3 15.2 C 0 km/h
905 29-06-2019 04:30:00 15.1 C 10.19 g/m*3 15.1 C 0 km/h
906 29-06-2019 04:35:00 15 C 10.13 g/m*3 15 C 0 km/h
907 29-06-2019 04:40:00 14.9 C 10.2 g/m*3 14.9 C 0 km/h
908 29-06-2019 04:45:00 14.8 C 10.13 g/m*3 14.8 C 0 km/h
909 29-06-2019 04:50:00 14.7 C 10.07 g/m*3 14.7 C 0 km/h
910 29-06-2019 04:55:00 14.6 C 10.14 g/m*3 14.6 C 0 km/h
911 29-06-2019 05:00:00 14.5 C 10.07 g/m*3 14.5 C 0 km/h
912 29-06-2019 05:05:00 14.4 C 10.01 g/m*3 14.4 C 0 km/h
913 29-06-2019 05:10:00 14.3 C 10.07 g/m*3 14.3 C 0 km/h
914 29-06-2019 05:15:00 14.3 C 10.07 g/m*3 14.3 C 0 km/h
915 29-06-2019 05:20:00 14.2 C 10.01 g/m*3 14.2 C 0 km/h
916 29-06-2019 05:25:00 14.1 C 10.07 g/m*3 14.1 C 0 km/h
917 29-06-2019 05:30:00 14 C 10.01 g/m*3 14 C 0 km/h
918 29-06-2019 05:35:00 13.9 C 9.95 g/m*3 13.9 C 0 km/h
919 29-06-2019 05:40:00 13.9 C 10.07 g/m*3 13.9 C 0 km/h
920 29-06-2019 05:45:00 13.9 C 10.07 g/m*3 13.9 C 0 km/h
921 29-06-2019 05:50:00 13.8 C 10.01 g/m*3 13.8 C 0 km/h
922 29-06-2019 05:55:00 13.8 C 10.01 g/m*3 13.8 C 0 km/h
923 29-06-2019 06:00:00 13.8 C 10.01 g/m*3 13.8 C 0 km/h
924 29-06-2019 06:05:00 13.7 C 9.95 g/m*3 13.7 C 0 km/h
925 29-06-2019 06:10:00 13.7 C 9.95 g/m*3 13.7 C 0 km/h
Sensor: Nr:Datum:Temp:Abs-Feuchte:Windchill:Wind:
Aussen-T/F 926 29-06-2019 06:15:00 13.7 C 10.07 g/m*3 13.7 C 0 km/h
927 29-06-2019 06:20:00 13.7 C 10.18 g/m*3 13.7 C 0 km/h
928 29-06-2019 06:25:00 13.7 C 10.18 g/m*3 13.7 C 0 km/h
929 29-06-2019 06:30:00 13.7 C 10.18 g/m*3 13.7 C 0 km/h
930 29-06-2019 06:35:00 13.7 C 10.18 g/m*3 13.7 C 0 km/h
931 29-06-2019 06:40:00 13.7 C 10.18 g/m*3 13.7 C 0 km/h
932 29-06-2019 06:45:00 13.7 C 10.18 g/m*3 13.7 C 0 km/h
933 29-06-2019 06:50:00 13.7 C 10.18 g/m*3 13.7 C 0 km/h
934 29-06-2019 06:55:00 13.7 C 10.3 g/m*3 13.7 C 0 km/h
935 29-06-2019 07:00:00 13.8 C 10.37 g/m*3 13.8 C 0 km/h
936 29-06-2019 07:05:00 13.8 C 10.37 g/m*3 13.8 C 0 km/h
937 29-06-2019 07:10:00 13.8 C 10.37 g/m*3 13.8 C 0 km/h
938 29-06-2019 07:15:00 13.9 C 10.43 g/m*3 13.9 C 0 km/h
939 29-06-2019 07:20:00 13.9 C 10.55 g/m*3 13.9 C 0 km/h
940 29-06-2019 07:25:00 14.1 C 10.68 g/m*3 14.1 C 0 km/h
941 29-06-2019 07:30:00 14.1 C 10.68 g/m*3 14.1 C 0 km/h
942 29-06-2019 07:35:00 14.2 C 10.75 g/m*3 14.2 C 0 km/h
943 29-06-2019 07:40:00 14.3 C 10.81 g/m*3 14.3 C 0 km/h
944 29-06-2019 07:45:00 14.3 C 10.81 g/m*3 14.3 C 0 km/h
945 29-06-2019 07:50:00 14.3 C 10.81 g/m*3 14.3 C 0 km/h
946 29-06-2019 07:55:00 14.4 C 10.88 g/m*3 14.4 C 0 km/h
947 29-06-2019 08:00:00 14.5 C 10.94 g/m*3 14.5 C 0 km/h
948 29-06-2019 08:05:00 14.6 C 10.89 g/m*3 14.6 C 0 km/h
949 29-06-2019 08:10:00 14.7 C 11.08 g/m*3 14.7 C 0 km/h
950 29-06-2019 08:15:00 14.8 C 11.15 g/m*3 14.8 C 0 km/h
Sensor: Nr:Datum:Temp:Abs-Feuchte:Windchill:Wind:
Aussen-T/F 951 29-06-2019 08:20:00 14.9 C 11.22 g/m*3 14.9 C 0 km/h
952 29-06-2019 08:25:00 15.1 C 11.22 g/m*3 15.1 C 0 km/h
953 29-06-2019 08:30:00 15.3 C 11.36 g/m*3 15.3 C 0 km/h
954 29-06-2019 08:35:00 15.5 C 11.5 g/m*3 15.5 C 0 km/h
955 29-06-2019 08:40:00 15.7 C 11.64 g/m*3 15.7 C 0 km/h
956 29-06-2019 08:45:00 15.8 C 11.58 g/m*3 15.8 C 0 km/h
957 29-06-2019 08:50:00 16 C 11.58 g/m*3 16 C 0 km/h
958 29-06-2019 08:55:00 16.3 C 11.79 g/m*3 16.3 C 0 km/h
959 29-06-2019 09:00:00 16.5 C 11.8 g/m*3 16.5 C 1.6 km/h
960 29-06-2019 09:05:00 16.7 C 11.8 g/m*3 16.7 C 1.6 km/h
961 29-06-2019 09:10:00 17.2 C 11.72 g/m*3 17.2 C 6.4 km/h
962 29-06-2019 09:15:00 17.7 C 11.62 g/m*3 17.7 C 6.4 km/h
963 29-06-2019 09:20:00 18.7 C 11.69 g/m*3 18.7 C 6.4 km/h
964 29-06-2019 09:25:00 19.3 C 11.94 g/m*3 19.3 C 3.2 km/h
965 29-06-2019 09:30:00 19.6 C 11.65 g/m*3 19.6 C 4.8 km/h
966 29-06-2019 09:35:00 20.1 C 11.82 g/m*3 20.1 C 8.1 km/h
967 29-06-2019 09:40:00 20.7 C 11.7 g/m*3 20.7 C 9.7 km/h
968 29-06-2019 09:45:00 21 C 11.72 g/m*3 21 C 6.4 km/h
969 29-06-2019 09:50:00 21.3 C 11.74 g/m*3 21.3 C 9.7 km/h
970 29-06-2019 09:55:00 21.6 C 11.38 g/m*3 21.6 C 9.7 km/h
971 29-06-2019 10:00:00 21.9 C 11.58 g/m*3 21.9 C 9.7 km/h
972 29-06-2019 10:05:00 22.2 C 11.58 g/m*3 22.2 C 8.1 km/h
973 29-06-2019 10:10:00 22.4 C 11.52 g/m*3 22.4 C 8.1 km/h
974 29-06-2019 10:15:00 22.8 C 11.79 g/m*3 22.8 C 8.1 km/h
975 29-06-2019 10:20:00 23.1 C 11.37 g/m*3 23.1 C 6.4 km/h
Sensor: Nr:Datum:Temp:Abs-Feuchte:Windchill:Wind:
Aussen-T/F 976 29-06-2019 10:25:00 23.4 C 11.35 g/m*3 23.4 C 14.5 km/h
977 29-06-2019 10:30:00 23.7 C 11.55 g/m*3 23.7 C 14.5 km/h
978 29-06-2019 10:35:00 23.9 C 11.68 g/m*3 23.9 C 6.4 km/h
979 29-06-2019 10:40:00 24.2 C 11.44 g/m*3 24.2 C 11.3 km/h
980 29-06-2019 10:45:00 24.6 C 12.38 g/m*3 24.6 C 6.4 km/h
981 29-06-2019 10:50:00 24.8 C 11.84 g/m*3 24.8 C 6.4 km/h
982 29-06-2019 10:55:00 24.9 C 11.45 g/m*3 24.9 C 8.1 km/h
983 29-06-2019 11:00:00 24.9 C 11.45 g/m*3 24.9 C 6.4 km/h
984 29-06-2019 11:05:00 25.1 C 11.34 g/m*3 25.1 C 9.7 km/h
985 29-06-2019 11:10:00 25.3 C 11.71 g/m*3 25.3 C 6.4 km/h
986 29-06-2019 11:15:00 25.4 C 11.3 g/m*3 25.4 C 9.7 km/h
987 29-06-2019 11:20:00 25.7 C 11.73 g/m*3 25.7 C 8.1 km/h
988 29-06-2019 11:25:00 25.8 C 11.56 g/m*3 25.8 C 8.1 km/h
989 29-06-2019 11:30:00 25.9 C 11.38 g/m*3 25.9 C 9.7 km/h
990 29-06-2019 11:35:00 26 C 11.44 g/m*3 26 C 11.3 km/h
991 29-06-2019 11:40:00 26.2 C 11.57 g/m*3 26.2 C 6.4 km/h
992 29-06-2019 11:45:00 26.3 C 11.64 g/m*3 26.3 C 6.4 km/h
993 29-06-2019 11:50:00 26.3 C 11.64 g/m*3 26.3 C 8.1 km/h
994 29-06-2019 11:55:00 26.4 C 11.7 g/m*3 26.4 C 4.8 km/h
995 29-06-2019 12:00:00 26.5 C 11.77 g/m*3 26.5 C 8.1 km/h
996 29-06-2019 12:05:00 26.6 C 11.58 g/m*3 26.6 C 9.7 km/h
997 29-06-2019 12:10:00 26.8 C 11.71 g/m*3 26.8 C 9.7 km/h
998 29-06-2019 12:15:00 26.9 C 11.77 g/m*3 26.9 C 6.4 km/h
999 29-06-2019 12:20:00 27.1 C 11.9 g/m*3 27.1 C 9.7 km/h
1000 29-06-2019 12:25:00 27.4 C 11.84 g/m*3 27.4 C 12.9 km/h
Sensor: Nr:Datum:Temp:Abs-Feuchte:Windchill:Wind:
Aussen-T/F 1001 29-06-2019 12:30:00 27.6 C 11.71 g/m*3 27.6 C 12.9 km/h
1002 29-06-2019 12:35:00 27.7 C 11.77 g/m*3 27.7 C 12.9 km/h
1003 29-06-2019 12:40:00 27.9 C 11.9 g/m*3 27.9 C 12.9 km/h
1004 29-06-2019 12:45:00 28.1 C 11.48 g/m*3 28.1 C 14.5 km/h
1005 29-06-2019 12:50:00 28.2 C 11.82 g/m*3 28.2 C 11.3 km/h
1006 29-06-2019 12:55:00 28.2 C 11.55 g/m*3 28.2 C 9.7 km/h
1007 29-06-2019 13:00:00 28.3 C 11.33 g/m*3 28.3 C 14.5 km/h
1008 29-06-2019 13:05:00 28.4 C 11.4 g/m*3 28.4 C 11.3 km/h
1009 29-06-2019 13:10:00 28.6 C 11.24 g/m*3 28.6 C 14.5 km/h
1010 29-06-2019 13:15:00 28.7 C 10.46 g/m*3 28.7 C 9.7 km/h
1011 29-06-2019 13:20:00 28.8 C 10.8 g/m*3 28.8 C 11.3 km/h
1012 29-06-2019 13:25:00 29.2 C 9.87 g/m*3 29.2 C 12.9 km/h
1013 29-06-2019 13:30:00 29.3 C 9.63 g/m*3 29.3 C 14.5 km/h
1014 29-06-2019 13:35:00 29.5 C 9.74 g/m*3 29.5 C 8.1 km/h
1015 29-06-2019 13:40:00 29.6 C 9.79 g/m*3 29.6 C 9.7 km/h
1016 29-06-2019 13:45:00 29.6 C 9.5 g/m*3 29.6 C 6.4 km/h
1017 29-06-2019 13:50:00 29.6 C 9.5 g/m*3 29.6 C 14.5 km/h
1018 29-06-2019 13:55:00 29.8 C 9.3 g/m*3 29.8 C 12.9 km/h
1019 29-06-2019 14:00:00 30.1 C 9.15 g/m*3 30.1 C 11.3 km/h
1020 29-06-2019 14:05:00 30.1 C 9.76 g/m*3 30.1 C 9.7 km/h
1021 29-06-2019 14:10:00 30.1 C 9.45 g/m*3 30.1 C 6.4 km/h
1022 29-06-2019 14:15:00 30.3 C 9.86 g/m*3 30.3 C 6.4 km/h
1023 29-06-2019 14:20:00 30.3 C 9.55 g/m*3 30.3 C 6.4 km/h
1024 29-06-2019 14:25:00 30.4 C 9.3 g/m*3 30.4 C 4.8 km/h
1025 29-06-2019 14:30:00 30.4 C 9.92 g/m*3 30.4 C 11.3 km/h
Sensor: Nr:Datum:Temp:Abs-Feuchte:Windchill:Wind:
Aussen-T/F 1026 29-06-2019 14:35:00 30.6 C 10.02 g/m*3 30.6 C 12.9 km/h
1027 29-06-2019 14:40:00 30.8 C 9.5 g/m*3 30.8 C 9.7 km/h
1028 29-06-2019 14:45:00 31.1 C 9.33 g/m*3 31.1 C 19.3 km/h
1029 29-06-2019 14:50:00 31.3 C 9.43 g/m*3 31.3 C 17.7 km/h
1030 29-06-2019 14:55:00 31.5 C 9.2 g/m*3 31.5 C 17.7 km/h
1031 29-06-2019 15:00:00 31.6 C 9.25 g/m*3 31.6 C 16.1 km/h
1032 29-06-2019 15:05:00 31.7 C 8.97 g/m*3 31.7 C 9.7 km/h
1033 29-06-2019 15:10:00 31.7 C 8.97 g/m*3 31.7 C 8.1 km/h
1034 29-06-2019 15:15:00 31.9 C 9.07 g/m*3 31.9 C 6.4 km/h
1035 29-06-2019 15:20:00 32.2 C 9.21 g/m*3 32.2 C 11.3 km/h
1036 29-06-2019 15:25:00 32.3 C 9.26 g/m*3 32.3 C 11.3 km/h
1037 29-06-2019 15:30:00 32.5 C 9.36 g/m*3 32.5 C 14.5 km/h
1038 29-06-2019 15:35:00 33 C 9.97 g/m*3 33 C 9.7 km/h
1039 29-06-2019 15:40:00 33.4 C 9.45 g/m*3 33.4 C 12.9 km/h
1040 29-06-2019 15:45:00 33.7 C 9.6 g/m*3 33.7 C 6.4 km/h
1041 29-06-2019 15:50:00 33.8 C 8.91 g/m*3 33.8 C 11.3 km/h
1042 29-06-2019 15:55:00 33.8 C 8.91 g/m*3 33.8 C 11.3 km/h
1043 29-06-2019 16:00:00 33.9 C 8.58 g/m*3 33.9 C 6.4 km/h
1044 29-06-2019 16:05:00 34.1 C 9.05 g/m*3 34.1 C 16.1 km/h
1045 29-06-2019 16:10:00 33.8 C 9.28 g/m*3 33.8 C 12.9 km/h
1046 29-06-2019 16:15:00 34 C 8.63 g/m*3 34 C 12.9 km/h
1047 29-06-2019 16:20:00 34.1 C 8.68 g/m*3 34.1 C 11.3 km/h
1048 29-06-2019 16:25:00 34.3 C 9.15 g/m*3 34.3 C 11.3 km/h
1049 29-06-2019 16:30:00 34.4 C 8.81 g/m*3 34.4 C 12.9 km/h
1050 29-06-2019 16:35:00 34.5 C 9.24 g/m*3 34.5 C 11.3 km/h
Sensor: Nr:Datum:Temp:Abs-Feuchte:Windchill:Wind:
Aussen-T/F 1051 29-06-2019 16:40:00 34.4 C 8.81 g/m*3 34.4 C 16.1 km/h
1052 29-06-2019 16:45:00 34.4 C 9.2 g/m*3 34.4 C 11.3 km/h
1053 29-06-2019 16:50:00 34.6 C 8.52 g/m*3 34.6 C 12.9 km/h
1054 29-06-2019 16:55:00 34.4 C 9.2 g/m*3 34.4 C 9.7 km/h
1055 29-06-2019 17:00:00 34.7 C 8.95 g/m*3 34.7 C 11.3 km/h
1056 29-06-2019 17:05:00 34.5 C 8.09 g/m*3 34.5 C 14.5 km/h
1057 29-06-2019 17:10:00 34.7 C 8.95 g/m*3 34.7 C 9.7 km/h
1058 29-06-2019 17:15:00 34.9 C 9.05 g/m*3 34.9 C 9.7 km/h
1059 29-06-2019 17:20:00 35.2 C 8.79 g/m*3 35.2 C 6.4 km/h
1060 29-06-2019 17:25:00 35.4 C 9.28 g/m*3 35.4 C 8.1 km/h
1061 29-06-2019 17:30:00 35.7 C 9.43 g/m*3 35.7 C 1.6 km/h
1062 29-06-2019 17:35:00 35.8 C 9.07 g/m*3 35.8 C 6.4 km/h
1063 29-06-2019 17:40:00 35.8 C 8.65 g/m*3 35.8 C 4.8 km/h
1064 29-06-2019 17:45:00 35.7 C 9.02 g/m*3 35.7 C 8.1 km/h
1065 29-06-2019 17:50:00 35.7 C 8.61 g/m*3 35.7 C 6.4 km/h
1066 29-06-2019 17:55:00 35.8 C 9.48 g/m*3 35.8 C 6.4 km/h
1067 29-06-2019 18:00:00 35.8 C 9.48 g/m*3 35.8 C 4.8 km/h
1068 29-06-2019 18:05:00 36 C 8.74 g/m*3 36 C 6.4 km/h
1069 29-06-2019 18:10:00 36.3 C 9.3 g/m*3 36.3 C 6.4 km/h
1070 29-06-2019 18:15:00 36 C 8.74 g/m*3 36 C 9.7 km/h
1071 29-06-2019 18:20:00 35.6 C 8.97 g/m*3 35.6 C 9.7 km/h
1072 29-06-2019 18:25:00 35.4 C 9.28 g/m*3 35.4 C 11.3 km/h
1073 29-06-2019 18:30:00 35.3 C 8.83 g/m*3 35.3 C 9.7 km/h
1074 29-06-2019 18:35:00 35.2 C 8.79 g/m*3 35.2 C 9.7 km/h
1075 29-06-2019 18:40:00 35.3 C 9.64 g/m*3 35.3 C 8.1 km/h
Sensor: Nr:Datum:Temp:Abs-Feuchte:Windchill:Wind:
Aussen-T/F 1076 29-06-2019 18:45:00 35.4 C 8.88 g/m*3 35.4 C 6.4 km/h
1077 29-06-2019 18:50:00 35.6 C 9.79 g/m*3 35.6 C 1.6 km/h
1078 29-06-2019 18:55:00 35.8 C 10.3 g/m*3 35.8 C 4.8 km/h
1079 29-06-2019 19:00:00 36 C 9.16 g/m*3 36 C 6.4 km/h
1080 29-06-2019 19:05:00 36.1 C 9.21 g/m*3 36.1 C 4.8 km/h
1081 29-06-2019 19:10:00 36 C 9.16 g/m*3 36 C 4.8 km/h
1082 29-06-2019 19:15:00 35.9 C 9.11 g/m*3 35.9 C 4.8 km/h
1083 29-06-2019 19:20:00 35.8 C 9.07 g/m*3 35.8 C 6.4 km/h
1084 29-06-2019 19:25:00 35.4 C 9.28 g/m*3 35.4 C 4.8 km/h
1085 29-06-2019 19:30:00 35 C 9.49 g/m*3 35 C 4.8 km/h
1086 29-06-2019 19:35:00 34.8 C 9.39 g/m*3 34.8 C 3.2 km/h
1087 29-06-2019 19:40:00 34.8 C 9.78 g/m*3 34.8 C 1.6 km/h
1088 29-06-2019 19:45:00 34.7 C 9.73 g/m*3 34.7 C 3.2 km/h
1089 29-06-2019 19:50:00 34.5 C 9.63 g/m*3 34.5 C 4.8 km/h
1090 29-06-2019 19:55:00 34.2 C 9.48 g/m*3 34.2 C 6.4 km/h
1091 29-06-2019 20:00:00 33.8 C 11.14 g/m*3 33.8 C 4.8 km/h
1092 29-06-2019 20:05:00 33.7 C 11.08 g/m*3 33.7 C 1.6 km/h
1093 29-06-2019 20:10:00 33.7 C 11.45 g/m*3 33.7 C 1.6 km/h
1094 29-06-2019 20:15:00 33.6 C 11.76 g/m*3 33.6 C 1.6 km/h
1095 29-06-2019 20:20:00 33.4 C 11.63 g/m*3 33.4 C 0 km/h
1096 29-06-2019 20:25:00 33.1 C 13.96 g/m*3 33.1 C 1.6 km/h
1097 29-06-2019 20:30:00 32.6 C 12.2 g/m*3 32.6 C 0 km/h
1098 29-06-2019 20:35:00 31.9 C 11.75 g/m*3 31.9 C 0 km/h
1099 29-06-2019 20:40:00 31.4 C 11.77 g/m*3 31.4 C 1.6 km/h
1100 29-06-2019 20:45:00 31 C 11.2 g/m*3 31 C 0 km/h
Sensor: Nr:Datum:Temp:Abs-Feuchte:Windchill:Wind:
Aussen-T/F 1101 29-06-2019 20:50:00 30.6 C 11.28 g/m*3 30.6 C 0 km/h
1102 29-06-2019 20:55:00 30.3 C 11.71 g/m*3 30.3 C 0 km/h
1103 29-06-2019 21:00:00 29.9 C 11.46 g/m*3 29.9 C 1.6 km/h
1104 29-06-2019 21:05:00 29.5 C 11.22 g/m*3 29.5 C 1.6 km/h
1105 29-06-2019 21:10:00 29.1 C 10.97 g/m*3 29.1 C 0 km/h
1106 29-06-2019 21:15:00 28.7 C 11.02 g/m*3 28.7 C 1.6 km/h
1107 29-06-2019 21:20:00 28.2 C 11 g/m*3 28.2 C 1.6 km/h
1108 29-06-2019 21:25:00 27.7 C 10.7 g/m*3 27.7 C 1.6 km/h
1109 29-06-2019 21:30:00 27.3 C 10.73 g/m*3 27.3 C 1.6 km/h
1110 29-06-2019 21:35:00 26.8 C 10.44 g/m*3 26.8 C 1.6 km/h
1111 29-06-2019 21:40:00 26.4 C 10.21 g/m*3 26.4 C 1.6 km/h
1112 29-06-2019 21:45:00 26.2 C 10.09 g/m*3 26.2 C 1.6 km/h
1113 29-06-2019 21:50:00 25.9 C 10.17 g/m*3 25.9 C 1.6 km/h
1114 29-06-2019 21:55:00 25.6 C 10 g/m*3 25.6 C 3.2 km/h
1115 29-06-2019 22:00:00 25.3 C 10.07 g/m*3 25.3 C 1.6 km/h
1116 29-06-2019 22:05:00 25.1 C 9.72 g/m*3 25.1 C 1.6 km/h
1117 29-06-2019 22:10:00 24.8 C 9.79 g/m*3 24.8 C 3.2 km/h
1118 29-06-2019 22:15:00 24.7 C 9.96 g/m*3 24.7 C 1.6 km/h
1119 29-06-2019 22:20:00 24.4 C 9.57 g/m*3 24.4 C 1.6 km/h
1120 29-06-2019 22:25:00 24.3 C 9.74 g/m*3 24.3 C 1.6 km/h
1121 29-06-2019 22:30:00 24.1 C 9.63 g/m*3 24.1 C 1.6 km/h
1122 29-06-2019 22:35:00 24 C 10.01 g/m*3 24 C 1.6 km/h
1123 29-06-2019 22:40:00 23.8 C 10.11 g/m*3 23.8 C 0 km/h
1124 29-06-2019 22:45:00 23.7 C 10.27 g/m*3 23.7 C 0 km/h
1125 29-06-2019 22:50:00 23.4 C 10.51 g/m*3 23.4 C 0 km/h
Sensor: Nr:Datum:Temp:Abs-Feuchte:Windchill:Wind:
Aussen-T/F 1126 29-06-2019 22:55:00 23.1 C 10.54 g/m*3 23.1 C 0 km/h
1127 29-06-2019 23:00:00 22.7 C 10.51 g/m*3 22.7 C 0 km/h
1128 29-06-2019 23:05:00 22.4 C 10.72 g/m*3 22.4 C 0 km/h
1129 29-06-2019 23:10:00 22.1 C 10.54 g/m*3 22.1 C 0 km/h
1130 29-06-2019 23:15:00 21.8 C 10.55 g/m*3 21.8 C 0 km/h
1131 29-06-2019 23:20:00 21.6 C 10.81 g/m*3 21.6 C 0 km/h
1132 29-06-2019 23:25:00 21.3 C 10.62 g/m*3 21.3 C 0 km/h
1133 29-06-2019 23:30:00 21.1 C 10.87 g/m*3 21.1 C 0 km/h
1134 29-06-2019 23:35:00 20.7 C 10.62 g/m*3 20.7 C 0 km/h
1135 29-06-2019 23:40:00 20.5 C 10.68 g/m*3 20.5 C 0 km/h
1136 29-06-2019 23:45:00 20.3 C 10.73 g/m*3 20.3 C 0 km/h
1137 29-06-2019 23:50:00 20.2 C 10.49 g/m*3 20.2 C 0 km/h
1138 29-06-2019 23:55:00 20.1 C 10.6 g/m*3 20.1 C 0 km/h
1139 30-06-2019 00:00:00 20 C 10.71 g/m*3 20 C 0 km/h
1140 30-06-2019 00:05:00 19.8 C 10.76 g/m*3 19.8 C 0 km/h
1141 30-06-2019 00:10:00 19.6 C 10.64 g/m*3 19.6 C 0 km/h
1142 30-06-2019 00:15:00 19.3 C 10.62 g/m*3 19.3 C 0 km/h
1143 30-06-2019 00:20:00 19.2 C 10.72 g/m*3 19.2 C 0 km/h
1144 30-06-2019 00:25:00 18.9 C 10.69 g/m*3 18.9 C 0 km/h
1145 30-06-2019 00:30:00 18.8 C 10.79 g/m*3 18.8 C 0 km/h
1146 30-06-2019 00:35:00 18.6 C 10.66 g/m*3 18.6 C 0 km/h
1147 30-06-2019 00:40:00 18.4 C 10.7 g/m*3 18.4 C 0 km/h
1148 30-06-2019 00:45:00 18.3 C 10.63 g/m*3 18.3 C 0 km/h
1149 30-06-2019 00:50:00 18.2 C 10.57 g/m*3 18.2 C 0 km/h
1150 30-06-2019 00:55:00 18.1 C 10.66 g/m*3 18.1 C 0 km/h
Sensor: Nr:Datum:Temp:Abs-Feuchte:Windchill:Wind:
Aussen-T/F 1151 30-06-2019 01:00:00 18 C 10.6 g/m*3 18 C 0 km/h
1152 30-06-2019 01:05:00 18 C 10.75 g/m*3 18 C 0 km/h
1153 30-06-2019 01:10:00 17.9 C 10.84 g/m*3 17.9 C 0 km/h
1154 30-06-2019 01:15:00 17.8 C 10.93 g/m*3 17.8 C 0 km/h
1155 30-06-2019 01:20:00 17.7 C 10.86 g/m*3 17.7 C 0 km/h
1156 30-06-2019 01:25:00 17.6 C 10.95 g/m*3 17.6 C 0 km/h
1157 30-06-2019 01:30:00 17.4 C 10.82 g/m*3 17.4 C 0 km/h
1158 30-06-2019 01:35:00 17.3 C 10.75 g/m*3 17.3 C 0 km/h
1159 30-06-2019 01:40:00 17.2 C 10.69 g/m*3 17.2 C 0 km/h
1160 30-06-2019 01:45:00 17.2 C 10.69 g/m*3 17.2 C 0 km/h
1161 30-06-2019 01:50:00 17.1 C 10.63 g/m*3 17.1 C 0 km/h
1162 30-06-2019 01:55:00 17.1 C 10.77 g/m*3 17.1 C 0 km/h
1163 30-06-2019 02:00:00 17 C 10.71 g/m*3 17 C 0 km/h
1164 30-06-2019 02:05:00 16.9 C 10.64 g/m*3 16.9 C 0 km/h
1165 30-06-2019 02:10:00 16.9 C 10.64 g/m*3 16.9 C 0 km/h
1166 30-06-2019 02:15:00 16.9 C 10.79 g/m*3 16.9 C 0 km/h
1167 30-06-2019 02:20:00 16.9 C 10.79 g/m*3 16.9 C 0 km/h
1168 30-06-2019 02:25:00 16.8 C 10.72 g/m*3 16.8 C 0 km/h
1169 30-06-2019 02:30:00 16.7 C 10.8 g/m*3 16.7 C 0 km/h
1170 30-06-2019 02:35:00 16.7 C 10.8 g/m*3 16.7 C 0 km/h
1171 30-06-2019 02:40:00 16.6 C 10.88 g/m*3 16.6 C 0 km/h
1172 30-06-2019 02:45:00 16.6 C 10.88 g/m*3 16.6 C 0 km/h
1173 30-06-2019 02:50:00 16.5 C 10.81 g/m*3 16.5 C 0 km/h
1174 30-06-2019 02:55:00 16.5 C 10.81 g/m*3 16.5 C 0 km/h
1175 30-06-2019 03:00:00 16.4 C 10.89 g/m*3 16.4 C 0 km/h
Sensor: Nr:Datum:Temp:Abs-Feuchte:Windchill:Wind:
Aussen-T/F 1176 30-06-2019 03:05:00 16.3 C 10.82 g/m*3 16.3 C 0 km/h
1177 30-06-2019 03:10:00 16.3 C 10.82 g/m*3 16.3 C 0 km/h
1178 30-06-2019 03:15:00 16.2 C 10.76 g/m*3 16.2 C 0 km/h
1179 30-06-2019 03:20:00 16.2 C 10.76 g/m*3 16.2 C 0 km/h
1180 30-06-2019 03:25:00 16.2 C 10.89 g/m*3 16.2 C 0 km/h
1181 30-06-2019 03:30:00 16.1 C 10.83 g/m*3 16.1 C 0 km/h
1182 30-06-2019 03:35:00 16.1 C 10.83 g/m*3 16.1 C 0 km/h
1183 30-06-2019 03:40:00 16 C 10.76 g/m*3 16 C 0 km/h
1184 30-06-2019 03:45:00 15.9 C 10.7 g/m*3 15.9 C 0 km/h
1185 30-06-2019 03:50:00 15.8 C 10.77 g/m*3 15.8 C 0 km/h
1186 30-06-2019 03:55:00 15.8 C 10.77 g/m*3 15.8 C 0 km/h
1187 30-06-2019 04:00:00 15.8 C 10.77 g/m*3 15.8 C 0 km/h
1188 30-06-2019 04:05:00 15.8 C 10.77 g/m*3 15.8 C 0 km/h
1189 30-06-2019 04:10:00 15.7 C 10.7 g/m*3 15.7 C 0 km/h
1190 30-06-2019 04:15:00 15.7 C 10.84 g/m*3 15.7 C 1.6 km/h
1191 30-06-2019 04:20:00 15.7 C 10.97 g/m*3 15.7 C 1.6 km/h
1192 30-06-2019 04:25:00 15.7 C 10.97 g/m*3 15.7 C 0 km/h
1193 30-06-2019 04:30:00 15.6 C 10.77 g/m*3 15.6 C 0 km/h
1194 30-06-2019 04:35:00 15.5 C 10.84 g/m*3 15.5 C 0 km/h
1195 30-06-2019 04:40:00 15.4 C 10.77 g/m*3 15.4 C 0 km/h
1196 30-06-2019 04:45:00 15.4 C 10.77 g/m*3 15.4 C 0 km/h
1197 30-06-2019 04:50:00 15.4 C 10.77 g/m*3 15.4 C 0 km/h
1198 30-06-2019 04:55:00 15.3 C 10.71 g/m*3 15.3 C 0 km/h
1199 30-06-2019 05:00:00 15.3 C 10.71 g/m*3 15.3 C 0 km/h
1200 30-06-2019 05:05:00 15.2 C 10.64 g/m*3 15.2 C 0 km/h
Sensor: Nr:Datum:Temp:Abs-Feuchte:Windchill:Wind:
Aussen-T/F 1201 30-06-2019 05:10:00 15.2 C 10.77 g/m*3 15.2 C 0 km/h
1202 30-06-2019 05:15:00 15.1 C 10.71 g/m*3 15.1 C 0 km/h
1203 30-06-2019 05:20:00 15.1 C 10.71 g/m*3 15.1 C 0 km/h
1204 30-06-2019 05:25:00 15.1 C 10.84 g/m*3 15.1 C 0 km/h
1205 30-06-2019 05:30:00 15.1 C 10.84 g/m*3 15.1 C 0 km/h
1206 30-06-2019 05:35:00 15 C 10.77 g/m*3 15 C 0 km/h
1207 30-06-2019 05:40:00 15 C 10.77 g/m*3 15 C 0 km/h
1208 30-06-2019 05:45:00 14.9 C 10.71 g/m*3 14.9 C 0 km/h
1209 30-06-2019 05:50:00 14.8 C 10.77 g/m*3 14.8 C 0 km/h
1210 30-06-2019 05:55:00 14.8 C 10.77 g/m*3 14.8 C 0 km/h
1211 30-06-2019 06:00:00 14.8 C 10.89 g/m*3 14.8 C 0 km/h
1212 30-06-2019 06:05:00 14.8 C 10.89 g/m*3 14.8 C 0 km/h
1213 30-06-2019 06:10:00 14.8 C 10.89 g/m*3 14.8 C 0 km/h
1214 30-06-2019 06:15:00 14.8 C 10.89 g/m*3 14.8 C 0 km/h
1215 30-06-2019 06:20:00 14.8 C 10.89 g/m*3 14.8 C 0 km/h
1216 30-06-2019 06:25:00 14.8 C 10.89 g/m*3 14.8 C 0 km/h
1217 30-06-2019 06:30:00 14.8 C 11.02 g/m*3 14.8 C 0 km/h
1218 30-06-2019 06:35:00 14.9 C 11.09 g/m*3 14.9 C 0 km/h
1219 30-06-2019 06:40:00 14.9 C 11.09 g/m*3 14.9 C 0 km/h
1220 30-06-2019 06:45:00 14.9 C 11.09 g/m*3 14.9 C 0 km/h
1221 30-06-2019 06:50:00 14.9 C 11.09 g/m*3 14.9 C 0 km/h
1222 30-06-2019 06:55:00 15 C 11.16 g/m*3 15 C 0 km/h
1223 30-06-2019 07:00:00 15 C 11.16 g/m*3 15 C 0 km/h
1224 30-06-2019 07:05:00 15.1 C 11.22 g/m*3 15.1 C 0 km/h
1225 30-06-2019 07:10:00 15.1 C 11.35 g/m*3 15.1 C 0 km/h
Sensor: Nr:Datum:Temp:Abs-Feuchte:Windchill:Wind:
Aussen-T/F 1226 30-06-2019 07:15:00 15.2 C 11.42 g/m*3 15.2 C 0 km/h
1227 30-06-2019 07:20:00 15.3 C 11.49 g/m*3 15.3 C 1.6 km/h
1228 30-06-2019 07:25:00 15.4 C 11.56 g/m*3 15.4 C 0 km/h
1229 30-06-2019 07:30:00 15.5 C 11.63 g/m*3 15.5 C 0 km/h
1230 30-06-2019 07:35:00 15.6 C 11.7 g/m*3 15.6 C 0 km/h
1231 30-06-2019 07:40:00 15.7 C 11.77 g/m*3 15.7 C 0 km/h
1232 30-06-2019 07:45:00 15.7 C 11.77 g/m*3 15.7 C 0 km/h
1233 30-06-2019 07:50:00 15.8 C 11.85 g/m*3 15.8 C 0 km/h
1234 30-06-2019 07:55:00 15.9 C 11.92 g/m*3 15.9 C 0 km/h
1235 30-06-2019 08:00:00 16.1 C 12.06 g/m*3 16.1 C 0 km/h
1236 30-06-2019 08:05:00 16.3 C 12.21 g/m*3 16.3 C 0 km/h
1237 30-06-2019 08:10:00 16.4 C 12.14 g/m*3 16.4 C 0 km/h
1238 30-06-2019 08:15:00 16.6 C 12.29 g/m*3 16.6 C 0 km/h
1239 30-06-2019 08:20:00 16.7 C 12.36 g/m*3 16.7 C 0 km/h
1240 30-06-2019 08:25:00 16.8 C 12.3 g/m*3 16.8 C 0 km/h
1241 30-06-2019 08:30:00 17.1 C 12.66 g/m*3 17.1 C 0 km/h
1242 30-06-2019 08:35:00 17.2 C 12.59 g/m*3 17.2 C 0 km/h
1243 30-06-2019 08:40:00 17.4 C 12.75 g/m*3 17.4 C 0 km/h
1244 30-06-2019 08:45:00 17.7 C 12.82 g/m*3 17.7 C 0 km/h
1245 30-06-2019 08:50:00 17.9 C 12.98 g/m*3 17.9 C 0 km/h
1246 30-06-2019 08:55:00 18.1 C 13.13 g/m*3 18.1 C 0 km/h
1247 30-06-2019 09:00:00 18.3 C 13.29 g/m*3 18.3 C 0 km/h
1248 30-06-2019 09:05:00 18.4 C 13.37 g/m*3 18.4 C 0 km/h
1249 30-06-2019 09:10:00 18.7 C 13.45 g/m*3 18.7 C 0 km/h
1250 30-06-2019 09:15:00 18.9 C 13.61 g/m*3 18.9 C 0 km/h
Sensor: Nr:Datum:Temp:Abs-Feuchte:Windchill:Wind:
Aussen-T/F 1251 30-06-2019 09:20:00 19.1 C 13.77 g/m*3 19.1 C 0 km/h
1252 30-06-2019 09:25:00 19.3 C 13.77 g/m*3 19.3 C 0 km/h
1253 30-06-2019 09:30:00 19.6 C 13.84 g/m*3 19.6 C 0 km/h
1254 30-06-2019 09:35:00 19.9 C 13.74 g/m*3 19.9 C 0 km/h
1255 30-06-2019 09:40:00 20.3 C 13.89 g/m*3 20.3 C 0 km/h
1256 30-06-2019 09:45:00 20.7 C 14.04 g/m*3 20.7 C 0 km/h
1257 30-06-2019 09:50:00 21.2 C 14.46 g/m*3 21.2 C 0 km/h
1258 30-06-2019 09:55:00 21.5 C 14.52 g/m*3 21.5 C 0 km/h
1259 30-06-2019 10:00:00 21.9 C 14.47 g/m*3 21.9 C 0 km/h
1260 30-06-2019 10:05:00 22.3 C 14.61 g/m*3 22.3 C 0 km/h
1261 30-06-2019 10:10:00 22.7 C 14.75 g/m*3 22.7 C 0 km/h
1262 30-06-2019 10:15:00 23.1 C 15.5 g/m*3 23.1 C 0 km/h
1263 30-06-2019 10:20:00 23.5 C 15.44 g/m*3 23.5 C 1.6 km/h
1264 30-06-2019 10:25:00 24.3 C 15.05 g/m*3 24.3 C 6.4 km/h
1265 30-06-2019 10:30:00 25.3 C 15.22 g/m*3 25.3 C 3.2 km/h
1266 30-06-2019 10:35:00 26.2 C 15.26 g/m*3 26.2 C 8.1 km/h
1267 30-06-2019 10:40:00 27.4 C 15.26 g/m*3 27.4 C 11.3 km/h
1268 30-06-2019 10:45:00 28.1 C 14.77 g/m*3 28.1 C 9.7 km/h
1269 30-06-2019 10:50:00 28.7 C 14.41 g/m*3 28.7 C 11.3 km/h
1270 30-06-2019 10:55:00 29.2 C 14.23 g/m*3 29.2 C 16.1 km/h
1271 30-06-2019 11:00:00 29.5 C 14.46 g/m*3 29.5 C 16.1 km/h
1272 30-06-2019 11:05:00 29.7 C 14.32 g/m*3 29.7 C 14.5 km/h
1273 30-06-2019 11:10:00 29.8 C 14.7 g/m*3 29.8 C 11.3 km/h
1274 30-06-2019 11:15:00 30.1 C 14.02 g/m*3 30.1 C 12.9 km/h
1275 30-06-2019 11:20:00 30.3 C 14.18 g/m*3 30.3 C 11.3 km/h
Sensor: Nr:Datum:Temp:Abs-Feuchte:Windchill:Wind:
Aussen-T/F 1276 30-06-2019 11:25:00 30.6 C 14.09 g/m*3 30.6 C 9.7 km/h
1277 30-06-2019 11:30:00 30.8 C 13.93 g/m*3 30.8 C 14.5 km/h
1278 30-06-2019 11:35:00 31 C 14.08 g/m*3 31 C 16.1 km/h
1279 30-06-2019 11:40:00 31.1 C 13.84 g/m*3 31.1 C 11.3 km/h
1280 30-06-2019 11:45:00 31.2 C 14.23 g/m*3 31.2 C 12.9 km/h
1281 30-06-2019 11:50:00 31.4 C 14.06 g/m*3 31.4 C 11.3 km/h
1282 30-06-2019 11:55:00 31.6 C 13.88 g/m*3 31.6 C 11.3 km/h
1283 30-06-2019 12:00:00 31.7 C 14.29 g/m*3 31.7 C 9.7 km/h
1284 30-06-2019 12:05:00 31.8 C 14.03 g/m*3 31.8 C 8.1 km/h
1285 30-06-2019 12:10:00 31.9 C 14.1 g/m*3 31.9 C 9.7 km/h
1286 30-06-2019 12:15:00 32.1 C 13.58 g/m*3 32.1 C 8.1 km/h
1287 30-06-2019 12:20:00 32.2 C 13.99 g/m*3 32.2 C 6.4 km/h
1288 30-06-2019 12:25:00 32.3 C 14.06 g/m*3 32.3 C 9.7 km/h
1289 30-06-2019 12:30:00 32.4 C 13.45 g/m*3 32.4 C 8.1 km/h
1290 30-06-2019 12:35:00 32.7 C 13.66 g/m*3 32.7 C 9.7 km/h
1291 30-06-2019 12:40:00 32.9 C 13.81 g/m*3 32.9 C 6.4 km/h
1292 30-06-2019 12:45:00 33.1 C 13.96 g/m*3 33.1 C 8.1 km/h
1293 30-06-2019 12:50:00 33.3 C 13.74 g/m*3 33.3 C 9.7 km/h
1294 30-06-2019 12:55:00 33.4 C 13.45 g/m*3 33.4 C 9.7 km/h
1295 30-06-2019 13:00:00 33.8 C 13.37 g/m*3 33.8 C 9.7 km/h
1296 30-06-2019 13:05:00 33.9 C 14.18 g/m*3 33.9 C 9.7 km/h
1297 30-06-2019 13:10:00 34 C 13.88 g/m*3 34 C 8.1 km/h
1298 30-06-2019 13:15:00 34.1 C 13.2 g/m*3 34.1 C 11.3 km/h
1299 30-06-2019 13:20:00 34.3 C 13.34 g/m*3 34.3 C 8.1 km/h
1300 30-06-2019 13:25:00 34.6 C 13.55 g/m*3 34.6 C 16.1 km/h
Sensor: Nr:Datum:Temp:Abs-Feuchte:Windchill:Wind:
Aussen-T/F 1301 30-06-2019 13:30:00 34.8 C 13.69 g/m*3 34.8 C 12.9 km/h
1302 30-06-2019 13:35:00 35 C 13.05 g/m*3 35 C 11.3 km/h
1303 30-06-2019 13:40:00 35.1 C 13.51 g/m*3 35.1 C 14.5 km/h
1304 30-06-2019 13:45:00 35.1 C 13.91 g/m*3 35.1 C 12.9 km/h
1305 30-06-2019 13:50:00 35.2 C 13.58 g/m*3 35.2 C 12.9 km/h
1306 30-06-2019 13:55:00 35.3 C 13.25 g/m*3 35.3 C 12.9 km/h
1307 30-06-2019 14:00:00 35.4 C 13.72 g/m*3 35.4 C 12.9 km/h
1308 30-06-2019 14:05:00 35.7 C 13.12 g/m*3 35.7 C 12.9 km/h
1309 30-06-2019 14:10:00 35.8 C 13.6 g/m*3 35.8 C 14.5 km/h
1310 30-06-2019 14:15:00 35.8 C 14.01 g/m*3 35.8 C 11.3 km/h
1311 30-06-2019 14:20:00 35.8 C 14.01 g/m*3 35.8 C 9.7 km/h
1312 30-06-2019 14:25:00 35.8 C 14.42 g/m*3 35.8 C 20.9 km/h
1313 30-06-2019 14:30:00 36 C 14.57 g/m*3 36 C 19.3 km/h
1314 30-06-2019 14:35:00 36.3 C 14.38 g/m*3 36.3 C 14.5 km/h
1315 30-06-2019 14:40:00 36.4 C 14.45 g/m*3 36.4 C 22.5 km/h
1316 30-06-2019 14:45:00 36.6 C 14.6 g/m*3 36.6 C 14.5 km/h
1317 30-06-2019 14:50:00 36.4 C 15.3 g/m*3 36.4 C 12.9 km/h
1318 30-06-2019 14:55:00 36.1 C 15.48 g/m*3 36.1 C 14.5 km/h
1319 30-06-2019 15:00:00 35.8 C 14.83 g/m*3 35.8 C 16.1 km/h
1320 30-06-2019 15:05:00 35.6 C 15.91 g/m*3 35.6 C 14.5 km/h
1321 30-06-2019 15:10:00 35.4 C 15.34 g/m*3 35.4 C 16.1 km/h
1322 30-06-2019 15:15:00 35.3 C 16.46 g/m*3 35.3 C 12.9 km/h
1323 30-06-2019 15:20:00 35.4 C 16.14 g/m*3 35.4 C 14.5 km/h
1324 30-06-2019 15:25:00 35.4 C 16.95 g/m*3 35.4 C 12.9 km/h
1325 30-06-2019 15:30:00 35.3 C 16.46 g/m*3 35.3 C 16.1 km/h
Sensor: Nr:Datum:Temp:Abs-Feuchte:Windchill:Wind:
Aussen-T/F 1326 30-06-2019 15:35:00 35.3 C 17.27 g/m*3 35.3 C 12.9 km/h
1327 30-06-2019 15:40:00 35.5 C 17.45 g/m*3 35.5 C 16.1 km/h
1328 30-06-2019 15:45:00 35.6 C 17.13 g/m*3 35.6 C 20.9 km/h
1329 30-06-2019 15:50:00 35.7 C 16.81 g/m*3 35.7 C 12.9 km/h
1330 30-06-2019 15:55:00 35.7 C 17.63 g/m*3 35.7 C 12.9 km/h
1331 30-06-2019 16:00:00 35.7 C 17.63 g/m*3 35.7 C 14.5 km/h
1332 30-06-2019 16:05:00 35.3 C 17.27 g/m*3 35.3 C 14.5 km/h
1333 30-06-2019 16:10:00 35.2 C 17.98 g/m*3 35.2 C 9.7 km/h
1334 30-06-2019 16:15:00 35.3 C 18.47 g/m*3 35.3 C 12.9 km/h
1335 30-06-2019 16:20:00 35.1 C 18.28 g/m*3 35.1 C 17.7 km/h
1336 30-06-2019 16:25:00 35 C 18.18 g/m*3 35 C 11.3 km/h
1337 30-06-2019 16:30:00 35.2 C 17.98 g/m*3 35.2 C 6.4 km/h
1338 30-06-2019 16:35:00 35.6 C 18.76 g/m*3 35.6 C 6.4 km/h
1339 30-06-2019 16:40:00 35.9 C 18.64 g/m*3 35.9 C 8.1 km/h
1340 30-06-2019 16:45:00 35.9 C 18.64 g/m*3 35.9 C 11.3 km/h
1341 30-06-2019 16:50:00 35.8 C 18.54 g/m*3 35.8 C 8.1 km/h
1342 30-06-2019 16:55:00 35.9 C 18.64 g/m*3 35.9 C 8.1 km/h
1343 30-06-2019 17:00:00 35.9 C 19.05 g/m*3 35.9 C 8.1 km/h
1344 30-06-2019 17:05:00 35.9 C 17.81 g/m*3 35.9 C 9.7 km/h
1345 30-06-2019 17:10:00 35.9 C 18.64 g/m*3 35.9 C 8.1 km/h
1346 30-06-2019 17:15:00 35.9 C 18.64 g/m*3 35.9 C 11.3 km/h
1347 30-06-2019 17:20:00 35.7 C 18.86 g/m*3 35.7 C 9.7 km/h
1348 30-06-2019 17:25:00 35.7 C 18.86 g/m*3 35.7 C 4.8 km/h
1349 30-06-2019 17:30:00 35.9 C 19.05 g/m*3 35.9 C 6.4 km/h
1350 30-06-2019 17:35:00 35.9 C 19.05 g/m*3 35.9 C 9.7 km/h
Sensor: Nr:Datum:Temp:Abs-Feuchte:Windchill:Wind:
Aussen-T/F 1351 30-06-2019 17:40:00 35.8 C 18.96 g/m*3 35.8 C 6.4 km/h
1352 30-06-2019 17:45:00 35.9 C 19.05 g/m*3 35.9 C 8.1 km/h
1353 30-06-2019 17:50:00 35.9 C 19.05 g/m*3 35.9 C 9.7 km/h
1354 30-06-2019 17:55:00 36.1 C 19.25 g/m*3 36.1 C 8.1 km/h
1355 30-06-2019 18:00:00 35.9 C 19.05 g/m*3 35.9 C 9.7 km/h
1356 30-06-2019 18:05:00 35.8 C 18.54 g/m*3 35.8 C 12.9 km/h
1357 30-06-2019 18:10:00 35.6 C 18.35 g/m*3 35.6 C 9.7 km/h
1358 30-06-2019 18:15:00 35.5 C 18.26 g/m*3 35.5 C 8.1 km/h
1359 30-06-2019 18:20:00 35.3 C 18.07 g/m*3 35.3 C 8.1 km/h
1360 30-06-2019 18:25:00 35.1 C 18.68 g/m*3 35.1 C 9.7 km/h
1361 30-06-2019 18:30:00 34.8 C 18.39 g/m*3 34.8 C 8.1 km/h
1362 30-06-2019 18:35:00 34.7 C 18.29 g/m*3 34.7 C 8.1 km/h
1363 30-06-2019 18:40:00 34.4 C 18.39 g/m*3 34.4 C 11.3 km/h
1364 30-06-2019 18:45:00 34.3 C 17.91 g/m*3 34.3 C 11.3 km/h
1365 30-06-2019 18:50:00 34.2 C 17.82 g/m*3 34.2 C 11.3 km/h
1366 30-06-2019 18:55:00 34.1 C 17.73 g/m*3 34.1 C 14.5 km/h
1367 30-06-2019 19:00:00 33.9 C 17.92 g/m*3 33.9 C 8.1 km/h
1368 30-06-2019 19:05:00 33.9 C 17.92 g/m*3 33.9 C 6.4 km/h
1369 30-06-2019 19:10:00 33.7 C 17.73 g/m*3 33.7 C 9.7 km/h
1370 30-06-2019 19:15:00 33.4 C 17.45 g/m*3 33.4 C 11.3 km/h
1371 30-06-2019 19:20:00 32.9 C 17.7 g/m*3 32.9 C 14.5 km/h
1372 30-06-2019 19:25:00 32.4 C 17.59 g/m*3 32.4 C 17.7 km/h
1373 30-06-2019 19:30:00 32.4 C 18.28 g/m*3 32.4 C 6.4 km/h
1374 30-06-2019 19:35:00 32.4 C 17.59 g/m*3 32.4 C 12.9 km/h
1375 30-06-2019 19:40:00 32.3 C 17.84 g/m*3 32.3 C 9.7 km/h
Sensor: Nr:Datum:Temp:Abs-Feuchte:Windchill:Wind:
Aussen-T/F 1376 30-06-2019 19:45:00 31.9 C 17.46 g/m*3 31.9 C 11.3 km/h
1377 30-06-2019 19:50:00 31.6 C 17.51 g/m*3 31.6 C 9.7 km/h
1378 30-06-2019 19:55:00 31.1 C 17.37 g/m*3 31.1 C 14.5 km/h
1379 30-06-2019 20:00:00 30.8 C 17.41 g/m*3 30.8 C 16.1 km/h
1380 30-06-2019 20:05:00 30.5 C 17.45 g/m*3 30.5 C 9.7 km/h
1381 30-06-2019 20:10:00 30.3 C 17.57 g/m*3 30.3 C 16.1 km/h
1382 30-06-2019 20:15:00 30 C 17.59 g/m*3 30 C 17.7 km/h
1383 30-06-2019 20:20:00 29.6 C 17.51 g/m*3 29.6 C 14.5 km/h
1384 30-06-2019 20:25:00 29.3 C 17.23 g/m*3 29.3 C 12.9 km/h
1385 30-06-2019 20:30:00 29.1 C 17.62 g/m*3 29.1 C 12.9 km/h
1386 30-06-2019 20:35:00 28.9 C 17.14 g/m*3 28.9 C 8.1 km/h
1387 30-06-2019 20:40:00 28.7 C 16.95 g/m*3 28.7 C 17.7 km/h
1388 30-06-2019 20:45:00 28.6 C 16.86 g/m*3 28.6 C 11.3 km/h
1389 30-06-2019 20:50:00 28.3 C 16.59 g/m*3 28.3 C 12.9 km/h
1390 30-06-2019 20:55:00 28.1 C 16.68 g/m*3 28.1 C 11.3 km/h
1391 30-06-2019 21:00:00 27.9 C 16.5 g/m*3 27.9 C 12.9 km/h
1392 30-06-2019 21:05:00 27.7 C 16.32 g/m*3 27.7 C 12.9 km/h
1393 30-06-2019 21:10:00 27.5 C 16.4 g/m*3 27.5 C 12.9 km/h
1394 30-06-2019 21:15:00 27.4 C 16.31 g/m*3 27.4 C 9.7 km/h
1395 30-06-2019 21:20:00 27.3 C 16.22 g/m*3 27.3 C 8.1 km/h
1396 30-06-2019 21:25:00 27.2 C 16.13 g/m*3 27.2 C 9.7 km/h
1397 30-06-2019 21:30:00 27.1 C 16.04 g/m*3 27.1 C 8.1 km/h
1398 30-06-2019 21:35:00 27 C 16.21 g/m*3 27 C 1.6 km/h
1399 30-06-2019 21:40:00 26.9 C 16.12 g/m*3 26.9 C 4.8 km/h
1400 30-06-2019 21:45:00 26.8 C 16.29 g/m*3 26.8 C 6.4 km/h
Sensor: Nr:Datum:Temp:Abs-Feuchte:Windchill:Wind:
Aussen-T/F 1401 30-06-2019 21:50:00 26.7 C 16.2 g/m*3 26.7 C 9.7 km/h
1402 30-06-2019 21:55:00 26.7 C 16.2 g/m*3 26.7 C 6.4 km/h
1403 30-06-2019 22:00:00 26.7 C 16.2 g/m*3 26.7 C 11.3 km/h
1404 30-06-2019 22:05:00 26.6 C 16.11 g/m*3 26.6 C 11.3 km/h
1405 30-06-2019 22:10:00 26.6 C 16.11 g/m*3 26.6 C 6.4 km/h
1406 30-06-2019 22:15:00 26.5 C 15.77 g/m*3 26.5 C 9.7 km/h
1407 30-06-2019 22:20:00 26.4 C 15.93 g/m*3 26.4 C 8.1 km/h
1408 30-06-2019 22:25:00 26.3 C 15.84 g/m*3 26.3 C 6.4 km/h
1409 30-06-2019 22:30:00 26.3 C 15.6 g/m*3 26.3 C 8.1 km/h
1410 30-06-2019 22:35:00 26.2 C 15.51 g/m*3 26.2 C 4.8 km/h
1411 30-06-2019 22:40:00 26.1 C 15.67 g/m*3 26.1 C 4.8 km/h
1412 30-06-2019 22:45:00 25.9 C 15.25 g/m*3 25.9 C 4.8 km/h
1413 30-06-2019 22:50:00 25.8 C 15.41 g/m*3 25.8 C 3.2 km/h
1414 30-06-2019 22:55:00 25.7 C 15.32 g/m*3 25.7 C 6.4 km/h
1415 30-06-2019 23:00:00 25.6 C 15.47 g/m*3 25.6 C 1.6 km/h
1416 30-06-2019 23:05:00 25.4 C 15.07 g/m*3 25.4 C 4.8 km/h
1417 30-06-2019 23:10:00 25.3 C 14.98 g/m*3 25.3 C 3.2 km/h
1418 30-06-2019 23:15:00 25.2 C 15.13 g/m*3 25.2 C 4.8 km/h
1419 30-06-2019 23:20:00 25 C 14.96 g/m*3 25 C 4.8 km/h
1420 30-06-2019 23:25:00 24.8 C 15.02 g/m*3 24.8 C 1.6 km/h
1421 30-06-2019 23:30:00 24.5 C 15.22 g/m*3 24.5 C 0 km/h
1422 30-06-2019 23:35:00 24.2 C 14.96 g/m*3 24.2 C 0 km/h
1423 30-06-2019 23:40:00 23.9 C 14.93 g/m*3 23.9 C 1.6 km/h
1424 30-06-2019 23:45:00 23.8 C 14.84 g/m*3 23.8 C 0 km/h
1425 30-06-2019 23:50:00 23.6 C 14.89 g/m*3 23.6 C 4.8 km/h
Sensor: Nr:Datum:Temp:Abs-Feuchte:Windchill:Wind:
Aussen-T/F 1426 30-06-2019 23:55:00 23.4 C 14.93 g/m*3 23.4 C 4.8 km/h

Legende:
   Min
   Max


Maximal/Minimal-Werte vom 26.06.2019 - 30.06.2019

Sensor Min Max Avg
Temp
(Aussen-T/F)
13.3 °C
28-06-2019  05:45:00
36.6 °C
30-06-2019  14:45:00
24.47 °C
Abs-Feuchte
(Aussen-T/F)
7.26 g/m*3
27-06-2019  19:35:00
19.88 g/m*3
26-06-2019  11:55:00
12.79 g/m*3
Windchill
(Aussen-T/F)
13.3 C
28-06-2019  05:45:00
36.6 C
30-06-2019  14:45:00
24.49 C

Die Daten stammen von einer Davis Vantage Pro 2 Wetter-Station und werden unter Linux mit der Software wview2wettercgi und aufbereitet. Alle Angaben erfolgen ohne Gewähr für ihre Vollständigkeit oder Richtigkeit.
Kontakt: Rainer Krienke krienke@uni-koblenz.de . Meine Webseiten an der Uni Koblenz oder privat.
Version: $Revision: 0.78 $